GFSSGP_700_rhum_000.txt.gz
RH
1 2 15 19 18 17 16 24 25 31 48 46 44 41 33 35 35 50 14 21 24 21 24 26 28 29 31 37 36 24 21 20 20 28 32 33 30 24 24 36 37 26 32 55 69 73 61 66 67
4 19 21 20 17 18 18 22 23 23 26 45 49 37 32 36 29 33 27 29 30 27 27 25 21 17 15 17 16 16 16 18 20 22 22 20 19 18 16 19 15 17 25 40 55 60 57 68 76
19 20 19 19 19 21 22 27 28 31 38 49 46 44 37 34 28 28 31 29 27 26 21 17 14 14 13 12 12 12 12 12 12 15 20 22 21 18 13 14 16 18 18 26 31 36 50 69 67
16 17 19 20 22 26 23 28 38 36 43 43 42 40 32 36 26 27 26 25 23 20 15 14 12 12 12 14 14 14 14 14 14 16 17 15 17 21 23 21 19 18 18 18 28 31 37 58 67
15 17 18 18 23 32 31 33 39 38 34 27 27 31 31 31 24 28 28 24 20 14 12 14 16 18 20 21 17 19 22 21 26 27 27 28 24 20 19 24 29 28 25 22 23 25 31 47 44
13 14 16 17 17 17 22 25 27 30 31 26 16 13 31 27 24 20 16 18 15 14 19 25 30 33 30 26 29 28 21 18 20 26 27 15 5 8 19 25 25 19 18 22 24 29 38 44 52
12 12 13 12 12 11 12 15 16 17 16 16 15 13 17 21 37 28 20 27 27 27 25 41 48 46 39 35 32 19 10 12 17 24 29 7 4 8 13 11 10 6 4 7 10 10 12 17 25
11 12 12 12 12 12 12 13 13 14 13 18 17 24 26 25 28 35 39 37 40 24 37 54 50 51 28 22 12 8 4 5 6 10 9 7 9 10 8 6 7 8 7 8 10 9 7 10 11
12 12 12 12 12 12 12 13 13 13 16 16 19 22 22 18 16 13 16 21 23 24 45 35 22 13 12 15 12 7 8 7 11 13 14 16 20 22 23 24 24 23 21 17 15 15 16 16 16
11 12 12 12 13 13 13 14 15 14 13 14 13 8 8 5 3 2 5 10 13 21 17 12 25 38 22 19 14 8 8 9 16 19 21 24 26 25 27 28 28 28 28 28 26 24 22 22 25
13 14 15 11 14 16 16 16 14 10 8 9 11 16 18 17 8 4 4 6 12 13 18 20 44 34 26 16 16 14 10 14 24 28 26 27 30 32 32 32 32 31 30 29 29 29 30 30 30
7 14 14 13 14 5 8 10 11 13 12 14 18 20 21 22 23 15 7 8 14 28 30 42 46 42 34 30 28 26 23 20 22 27 27 26 27 29 31 31 32 33 36 39 41 40 38 36 34
17 16 16 20 20 20 17 18 18 18 18 15 20 19 21 23 24 24 25 26 28 34 40 42 44 40 36 34 33 34 32 30 29 30 31 33 34 36 37 38 38 39 39 40 42 45 50 50 49
18 20 23 25 26 21 18 17 18 21 23 19 20 21 20 23 25 26 28 30 32 36 39 43 46 42 35 35 36 37 38 38 38 39 39 39 39 39 40 42 44 45 45 44 43 43 47 51 55
20 21 24 23 23 25 22 22 20 26 26 22 20 24 22 23 25 26 27 30 32 32 36 43 45 44 38 39 40 40 40 39 42 43 44 44 45 46 47 46 45 46 45 45 45 45 46 48 52
21 22 22 22 23 24 27 21 24 27 27 27 20 24 25 23 26 26 26 30 31 35 43 46 46 43 45 43 44 44 44 42 41 36 34 39 45 48 49 50 51 52 53 54 56 56 56 56 56
17 19 18 25 28 28 29 27 23 23 23 23 22 23 26 25 26 27 27 29 30 35 43 50 47 45 50 52 46 49 49 47 50 43 40 38 43 49 50 51 53 54 53 53 55 56 56 56 57
18 21 20 20 28 29 26 20 20 20 22 23 22 21 24 27 27 28 29 30 28 33 42 46 47 47 49 55 55 53 53 54 46 49 48 41 40 45 50 50 52 56 56 51 52 53 54 56 58
23 25 24 18 19 20 25 28 22 19 22 25 25 23 19 26 28 27 30 28 35 37 41 46 48 46 44 54 60 59 60 53 48 55 54 46 39 42 46 44 47 54 62 68 65 58 55 54 56
22 24 22 19 27 30 33 26 26 24 24 25 24 19 21 25 27 30 30 32 35 46 47 44 45 52 60 64 64 66 68 65 63 67 59 54 44 46 47 42 39 45 57 63 65 70 72 72 64
25 24 29 32 28 38 35 28 31 28 26 28 26 24 23 27 32 38 38 41 50 58 59 59 62 65 69 76 81 80 76 74 72 71 68 66 54 50 48 43 42 48 58 63 68 83 88 86 82
31 33 32 33 36 41 38 36 37 34 30 30 31 30 32 37 40 44 53 55 61 64 64 64 64 67 71 72 73 74 78 80 76 76 68 54 53 53 52 49 49 63 78 82 90 84 94 91 92
32 30 29 31 38 45 44 39 42 40 38 37 35 35 38 43 52 55 58 62 65 68 66 65 70 72 68 74 77 79 80 81 71 60 55 53 51 49 46 44 41 43 50 60 89 95 98 99 99
36 29 35 47 45 50 51 47 47 46 45 45 40 41 47 56 59 63 64 64 65 66 61 64 70 72 75 80 83 86 80 62 56 51 47 43 38 32 26 21 19 19 28 42 56 81 96 97 98
43 29 35 52 63 65 48 48 50 55 50 51 50 51 56 64 62 63 63 64 70 64 69 74 78 80 83 84 81 69 59 56 50 42 27 18 17 16 15 12 13 20 26 34 46 82 98 94 96
50 45 55 58 86 70 48 50 56 62 56 56 54 58 61 61 58 63 67 73 74 76 79 82 86 91 96 69 60 58 54 48 36 20 21 16 10 9 11 24 34 46 61 70 96 92 97 95 98
53 56 59 61 68 82 55 55 58 56 60 67 62 60 63 64 70 74 78 81 86 95 96 96 93 83 71 66 63 55 43 24 23 24 15 10 9 14 36 66 87 91 88 96 98 98 96 98 98
58 61 60 62 89 88 61 49 49 61 65 61 58 67 74 77 80 83 87 94 94 90 86 93 90 82 77 72 55 32 26 34 32 28 23 16 16 36 71 89 95 100 93 93 81 76 99 96 94
67 66 68 66 71 89 96 63 56 59 58 61 66 71 74 82 82 80 84 87 86 86 93 91 78 77 63 50 39 34 38 38 32 21 15 14 37 68 92 94 94 97 95 97 93 93 98 97 90
66 64 61 60 68 79 81 74 59 66 61 67 70 62 68 88 89 86 84 88 94 70 70 82 84 75 47 37 42 45 38 22 15 13 12 30 64 92 87 93 97 96 96 95 93 95 96 94 74

GFSSGP_700_rhum_006.txt.gz
RH
1 1 8 15 19 23 30 38 51 64 64 37 31 55 48 24 42 66 31 24 24 31 42 48 46 49 55 59 50 38 20 17 17 17 16 16 16 18 25 42 41 43 56 67 65 55 57 67 66
2 11 15 19 18 20 31 41 47 62 37 33 28 29 37 28 33 24 26 24 26 28 31 33 31 28 27 26 19 14 17 12 14 16 15 14 15 16 18 19 21 26 33 26 20 18 20 24 30
18 18 20 19 17 22 29 39 63 41 40 36 31 27 17 30 29 26 26 24 23 16 13 12 12 12 12 14 14 14 15 17 16 16 17 18 17 16 17 19 22 21 18 18 18 19 19 20 28
20 19 18 19 22 37 36 51 56 45 44 40 48 29 22 24 34 30 26 20 15 13 12 13 14 17 20 24 23 21 24 24 26 29 28 28 26 27 22 22 20 19 20 23 27 27 26 25 23
20 22 23 22 27 34 46 54 62 55 58 37 32 26 20 25 27 25 22 18 15 16 18 22 24 27 30 30 32 32 28 21 17 17 21 24 28 6 7 13 20 23 26 22 18 22 28 32 36
20 26 20 23 33 43 47 40 46 38 33 24 37 30 20 28 29 27 21 17 15 18 27 28 26 30 32 32 30 20 9 10 11 15 20 24 5 6 9 16 20 14 11 9 10 19 25 20 27
19 19 18 21 27 30 31 17 39 38 44 42 16 43 23 25 25 25 21 18 21 28 26 30 34 37 37 21 9 5 5 4 5 8 15 7 7 8 8 5 7 7 7 7 8 11 14 12 9
15 15 16 17 17 16 16 15 15 28 31 16 18 43 20 24 31 26 28 31 32 31 38 42 44 28 8 5 4 2 5 6 6 9 10 11 13 17 20 21 20 19 18 16 15 10 8 10 12
12 13 12 13 13 15 14 16 13 14 20 16 19 47 31 14 12 25 38 41 43 32 43 48 21 13 20 20 17 12 5 4 5 11 16 17 19 21 22 23 23 24 24 24 24 24 21 18 17
14 12 13 12 14 14 14 15 15 16 18 19 14 8 9 4 2 11 33 44 30 31 42 27 16 27 32 33 33 32 30 25 19 16 18 24 25 25 26 26 27 27 28 28 29 29 28 26 26
13 14 12 13 13 15 15 14 12 17 19 20 26 20 20 13 5 6 30 33 28 47 27 21 30 36 36 37 37 36 36 36 36 35 36 35 35 34 32 32 31 31 30 32 32 32 33 34 36
12 10 11 12 5 10 18 15 16 18 16 19 23 24 24 24 20 6 19 63 66 33 20 29 36 39 40 39 41 44 42 39 40 40 41 39 38 39 40 42 42 42 42 42 41 41 41 40 40
18 16 16 17 19 16 15 15 19 14 19 20 20 20 22 24 26 23 16 69 81 24 32 37 41 43 43 42 46 47 48 48 45 46 47 41 38 36 35 34 38 44 46 47 48 46 44 43 43
18 20 21 23 22 17 18 19 20 22 23 21 20 21 21 23 25 27 24 36 55 54 46 44 44 44 44 43 45 47 51 50 52 51 50 42 44 41 35 39 37 38 43 48 49 51 51 51 48
19 22 24 23 24 22 19 21 22 22 26 27 23 22 22 22 23 27 26 33 60 59 41 43 44 43 46 45 46 46 51 54 54 55 53 44 42 46 43 41 38 37 37 38 40 42 42 44 46
23 22 20 22 25 24 24 21 26 21 24 25 27 22 24 23 23 27 30 34 37 39 40 42 39 42 50 47 48 47 49 56 56 59 58 55 54 50 53 51 43 42 39 36 37 36 36 35 36
19 14 17 26 24 24 25 25 30 23 20 23 24 27 25 25 25 26 28 30 31 34 36 39 44 51 52 50 48 48 53 54 59 61 51 54 58 67 66 53 45 47 43 40 38 37 37 36 36
19 19 21 22 23 17 30 31 21 19 18 26 26 24 28 28 25 26 28 31 33 35 39 42 45 48 52 51 50 55 54 51 62 60 56 59 66 64 62 49 40 38 40 42 43 42 44 44 42
13 22 25 26 15 21 36 33 28 22 24 25 26 23 23 30 26 29 30 32 34 39 41 56 45 48 52 51 56 58 58 57 59 62 67 75 74 71 61 52 48 47 48 47 45 47 49 47 51
23 28 27 28 24 32 40 34 27 28 28 27 26 24 24 27 29 32 33 34 34 35 39 51 50 50 50 59 60 63 67 71 75 77 79 79 77 77 67 51 47 43 34 28 24 23 25 29 36
30 33 41 40 34 35 38 36 36 26 26 27 26 24 26 30 33 35 37 38 41 50 56 60 60 59 62 61 64 68 72 79 81 80 81 83 78 64 57 44 33 28 25 24 23 22 18 16 22
37 33 31 30 41 29 34 25 42 35 33 32 32 32 34 38 41 43 47 54 56 59 61 63 65 66 66 67 69 73 76 78 80 82 86 82 62 56 40 33 30 27 21 18 16 14 16 12 10
50 35 30 32 43 42 40 29 42 43 43 46 39 40 42 45 47 55 58 60 61 64 68 67 66 68 68 71 74 77 80 87 92 82 71 66 59 47 44 34 24 18 12 10 10 10 11 12 14
37 31 40 48 52 42 48 39 41 46 51 51 42 45 46 49 53 61 62 63 65 68 68 67 68 73 80 81 88 91 94 94 69 55 54 53 54 54 46 38 24 14 11 10 10 12 13 12 18
51 46 38 49 47 41 44 41 52 56 50 49 46 48 52 58 64 60 62 67 69 71 68 74 92 92 92 97 95 97 84 66 73 68 65 58 60 52 42 26 11 8 9 11 14 18 32 36 39
44 55 52 49 46 39 47 35 49 54 55 53 55 58 60 61 60 64 69 72 76 83 88 88 94 98 96 87 61 60 61 62 68 68 70 60 52 39 28 11 8 8 15 29 50 80 81 94 95
57 59 47 57 58 68 43 52 50 56 67 62 62 63 59 59 62 64 69 73 75 77 78 81 75 65 56 56 57 57 53 54 66 71 65 60 42 18 12 11 21 36 51 72 87 91 95 97 98
56 52 56 54 70 44 27 33 35 63 65 70 68 71 68 64 73 76 80 84 91 83 71 69 67 66 65 64 58 65 76 84 83 75 44 24 14 14 22 37 59 74 92 92 80 84 97 96 94
66 67 61 57 63 50 51 32 57 58 64 63 70 79 79 66 81 93 82 85 72 68 69 66 64 66 80 79 84 97 91 45 23 21 18 14 24 40 55 72 78 92 88 96 97 97 95 95 94
63 71 67 54 54 68 71 53 50 50 64 68 78 86 64 72 96 99 90 86 76 72 69 71 95 100 98 98 86 44 44 36 25 16 18 38 48 61 74 90 88 96 98 96 95 96 96 97 97

GFSSGP_700_rhum_009.txt.gz
RH
1 2 8 12 19 18 25 34 37 43 49 62 53 52 54 58 71 74 43 26 25 32 52 69 56 49 48 51 49 40 30 16 20 21 17 18 20 22 25 26 33 48 51 47 55 52 54 46 29
1 5 11 20 18 17 24 29 35 43 49 48 44 42 48 53 18 33 33 25 26 34 47 44 46 47 50 44 34 20 17 17 14 15 15 15 15 15 15 16 17 18 19 22 21 18 19 18 21
4 11 19 15 15 15 26 29 42 48 50 50 48 52 55 68 76 76 26 24 28 28 29 26 23 24 16 14 13 15 19 18 18 18 20 23 24 23 22 21 19 17 20 22 21 21 21 22 24
14 16 18 15 20 24 27 38 43 47 55 53 43 57 60 74 77 30 24 23 18 14 13 12 12 13 16 21 23 23 23 26 28 27 26 22 25 25 24 8 11 18 21 21 21 23 23 24 26
17 18 17 17 25 29 35 39 42 44 45 47 44 50 73 63 44 27 22 17 14 12 13 15 18 23 29 30 29 30 29 22 13 13 14 19 24 8 5 9 16 23 23 22 16 15 20 27 33
18 20 17 20 26 35 41 44 41 35 40 43 44 53 77 32 27 23 20 17 14 15 20 25 27 28 29 30 30 19 8 8 4 6 13 20 7 5 5 5 5 7 8 6 4 7 12 19 15
18 20 17 22 26 28 33 34 31 29 34 35 41 49 76 70 27 26 21 17 16 19 27 26 22 27 32 18 6 4 4 4 5 7 9 9 7 8 11 14 14 10 7 7 7 8 7 9 11
17 16 17 18 20 20 21 23 29 29 32 36 36 39 62 82 27 25 21 21 23 28 29 26 30 22 6 4 3 2 3 4 4 7 10 12 14 16 20 21 22 22 22 22 23 22 20 18 16
13 13 13 12 12 13 14 14 16 23 32 35 38 50 54 25 24 26 27 31 33 36 32 40 24 9 17 19 22 24 22 13 8 9 14 19 22 24 24 24 24 24 25 26 27 28 28 28 26
13 11 11 11 12 12 12 12 14 23 27 24 34 38 72 11 8 16 30 51 56 43 33 37 14 17 26 28 32 33 33 33 31 32 32 32 33 33 33 32 32 31 31 31 30 31 32 32 34
13 13 13 13 11 9 9 11 13 15 17 20 28 41 69 13 7 57 85 85 88 92 82 26 15 28 34 37 40 45 40 38 38 38 40 40 38 37 37 38 38 38 39 40 42 41 39 39 39
16 15 14 14 10 13 12 13 15 14 14 19 23 43 61 42 64 85 82 78 84 91 91 42 26 32 37 41 45 46 46 46 44 43 44 43 41 38 36 37 37 37 37 37 39 44 44 44 43
14 16 15 14 8 16 17 17 20 16 18 17 29 45 60 74 76 75 79 76 79 84 87 95 38 35 39 42 47 46 48 49 48 44 44 45 43 38 38 36 35 36 37 36 34 35 38 40 42
18 20 22 22 23 18 21 22 24 23 21 21 26 36 50 57 60 66 74 74 80 80 90 93 95 39 41 42 43 44 42 44 48 53 49 50 48 43 45 42 46 41 38 37 36 34 34 34 34
21 22 24 25 27 26 22 22 21 23 24 24 23 28 40 50 53 61 71 74 80 82 87 98 100 46 42 43 45 46 47 48 51 53 49 51 46 53 41 43 43 44 42 40 37 35 35 34 33
21 21 20 25 26 27 25 21 20 25 26 24 28 26 30 43 49 55 65 72 79 80 90 96 98 42 43 46 49 48 49 50 54 49 44 45 42 42 42 37 36 40 44 46 41 35 34 36 37
18 16 14 24 25 27 25 20 23 30 28 26 25 27 29 35 49 58 64 68 74 79 84 90 88 47 43 45 50 49 50 53 55 50 49 47 53 52 55 53 46 46 47 49 42 37 37 40 40
15 13 14 14 25 22 20 20 25 30 20 26 26 27 29 31 47 64 82 74 77 81 58 85 92 64 41 51 49 52 51 58 58 56 58 59 62 59 61 63 59 54 51 51 42 36 31 31 32
18 18 17 20 29 21 28 23 28 33 30 33 32 33 33 34 53 74 48 29 32 34 39 86 89 42 49 53 53 53 54 62 64 66 69 75 74 76 76 77 76 66 57 46 36 29 25 25 24
25 22 21 26 25 21 29 26 30 34 38 36 36 39 45 47 56 48 31 32 36 36 39 41 45 52 54 56 56 55 62 65 67 72 72 79 82 86 87 86 76 58 46 33 29 25 22 20 18
30 27 34 33 32 30 31 28 30 36 38 39 43 43 46 53 59 40 36 35 37 42 51 56 58 59 57 57 58 62 64 68 73 79 80 85 90 71 62 54 58 51 44 40 31 25 19 16 14
31 39 39 36 32 25 29 22 32 32 38 44 49 51 51 55 58 41 42 48 54 55 58 59 59 62 62 62 64 66 74 77 79 86 83 85 92 50 48 47 48 51 48 45 31 21 16 13 14
43 27 41 40 32 29 26 21 36 32 36 43 52 58 59 44 45 47 55 59 60 58 60 66 66 63 62 64 65 75 71 75 88 98 87 52 54 53 58 59 54 57 48 38 37 22 16 14 10
38 46 44 44 35 32 32 28 31 34 42 48 58 67 71 66 50 53 58 60 59 59 63 65 64 64 66 79 90 92 93 77 61 52 48 49 51 55 65 64 59 59 51 44 22 16 13 10 9
41 38 37 42 39 38 39 28 42 47 48 52 63 69 77 51 56 61 61 74 66 69 74 75 74 74 89 94 79 62 53 50 54 55 56 60 64 69 71 71 68 57 38 17 15 23 26 53 62
44 45 48 42 38 31 36 25 40 51 59 60 65 70 74 75 70 76 76 72 89 74 73 75 79 76 66 54 52 56 61 66 64 63 75 79 69 62 53 38 28 17 16 21 37 58 60 81 99
47 47 45 54 55 56 28 32 47 56 59 60 64 69 74 78 81 86 90 94 85 70 74 73 66 58 62 62 60 57 55 61 70 74 74 59 47 31 25 18 14 21 34 37 56 86 90 88 89
53 48 51 46 60 38 21 22 33 55 51 61 56 60 66 71 74 84 87 94 94 94 75 70 65 72 79 90 85 69 84 81 73 56 43 33 22 13 14 24 44 60 76 88 93 97 96 96 96
51 52 55 42 48 44 39 30 45 44 53 56 62 63 69 72 79 84 92 90 95 100 100 100 99 84 84 100 97 78 70 60 45 32 16 10 12 26 41 52 63 86 95 94 95 93 87 94 99
58 52 50 50 42 50 59 50 52 52 54 60 62 66 76 84 86 93 96 98 94 100 99 90 78 82 70 69 72 57 43 26 12 9 8 14 35 56 95 79 89 94 97 98 97 96 100 97 96

GFSSGP_700_rhum_012.txt.gz
RH
4 2 5 9 17 17 18 28 34 42 47 49 47 47 55 62 61 78 82 40 22 35 57 68 47 42 42 44 43 41 34 19 16 19 19 19 20 21 17 16 16 18 20 20 26 24 25 18 15
2 3 6 12 25 22 22 31 35 43 45 38 40 41 54 56 30 31 55 44 22 22 57 68 54 48 46 50 48 33 17 20 18 17 16 16 16 17 19 18 18 18 17 17 18 18 16 16 16
2 5 15 22 18 18 26 32 49 43 38 41 46 58 61 72 78 38 33 32 25 23 37 46 47 45 41 24 15 15 19 20 20 20 22 22 22 23 22 22 11 8 12 16 16 15 14 15 15
8 11 15 18 18 23 27 39 42 41 46 43 43 54 54 74 63 39 24 25 27 30 32 25 20 17 13 15 20 24 24 23 23 19 12 14 18 21 6 4 6 10 19 20 20 20 15 15 18
8 14 19 19 25 28 34 36 35 41 43 41 42 75 82 82 60 25 25 24 22 16 13 13 13 16 20 23 21 23 23 14 7 6 10 16 19 5 5 5 5 6 6 6 6 4 4 9 15
18 19 19 19 27 31 35 34 43 39 42 39 45 67 91 64 41 26 22 18 17 14 14 16 21 21 17 19 24 13 4 4 4 6 7 10 8 6 9 12 16 17 16 13 11 10 9 7 6
22 20 22 22 27 31 38 36 28 28 33 34 42 63 77 86 29 24 21 20 17 16 18 24 23 17 20 14 3 3 4 4 4 5 7 10 11 14 15 18 20 21 21 22 22 22 22 22 21
19 18 19 24 22 24 25 28 27 27 33 33 36 44 63 74 26 26 23 20 21 23 27 28 21 16 6 4 6 7 7 6 8 7 9 13 17 20 22 25 25 25 25 25 25 26 27 27 26
16 15 17 16 17 16 16 15 20 23 32 32 47 42 60 27 24 25 21 22 28 32 33 31 22 7 7 16 21 28 28 28 28 28 27 31 32 30 30 32 34 34 35 35 34 35 34 32 31
14 13 12 11 12 12 12 12 13 22 27 28 44 60 62 31 14 20 25 30 38 40 42 33 21 12 25 30 31 31 30 32 33 34 36 37 40 36 36 35 34 33 33 32 33 32 33 35 38
14 13 12 10 11 10 10 11 12 17 18 21 34 43 60 9 8 8 42 73 90 77 83 77 21 26 31 39 41 40 40 42 40 39 40 42 40 38 37 36 35 32 31 30 30 33 32 32 35
14 14 13 12 9 10 9 11 11 13 15 18 26 40 69 65 44 73 84 83 64 92 82 72 23 31 37 41 40 41 40 45 45 46 46 47 44 42 38 36 35 38 37 34 32 33 33 32 32
14 14 13 12 7 14 14 15 18 14 16 20 28 43 64 79 82 82 79 88 70 90 74 91 57 34 36 40 41 41 42 40 41 42 43 47 46 37 34 32 31 31 35 36 31 31 30 29 30
14 15 15 15 18 13 14 17 19 20 17 18 28 40 53 67 72 71 76 73 84 86 87 75 64 38 33 35 38 40 40 42 44 46 46 50 42 36 34 35 32 31 31 34 38 38 35 32 29
17 19 20 22 24 23 14 23 19 22 21 20 21 28 42 49 55 60 67 73 75 76 84 95 97 41 46 37 39 44 40 46 48 47 47 52 48 44 40 39 41 39 37 38 45 42 39 35 32
18 19 19 22 22 24 22 22 20 22 22 23 24 24 27 40 49 52 64 71 77 82 80 99 81 52 44 39 40 47 45 49 52 55 57 56 56 55 53 52 49 51 50 49 47 46 43 38 35
20 17 18 24 22 25 23 22 20 23 25 25 24 26 26 28 42 49 58 63 71 74 85 89 92 65 67 44 50 46 50 52 53 60 66 65 64 59 65 67 68 69 66 56 52 51 46 42 36
19 14 14 13 23 19 18 20 22 26 28 27 25 23 26 28 34 48 59 66 73 76 80 89 95 64 94 70 48 62 62 57 64 59 66 69 67 67 70 74 77 83 78 73 67 58 54 43 36
18 15 14 20 23 21 19 22 23 28 28 31 31 30 30 31 34 53 66 70 76 77 76 68 64 71 83 73 60 52 55 65 63 62 71 71 70 72 78 78 81 70 55 56 55 58 50 39 34
20 19 18 22 23 19 25 21 26 32 35 34 34 35 36 44 55 62 65 64 63 33 37 52 53 50 51 59 59 61 63 61 65 68 71 81 84 89 88 89 80 72 50 46 50 50 46 45 39
25 23 33 32 30 27 27 26 29 34 39 40 41 45 51 51 51 58 62 55 43 40 40 47 54 58 60 61 69 64 62 61 66 79 97 93 92 96 65 55 60 51 52 54 53 53 54 51 47
29 38 30 32 29 24 24 22 29 35 40 45 48 49 54 58 63 69 43 40 45 50 56 57 57 59 62 64 62 62 64 71 85 92 94 64 53 54 55 58 57 57 58 61 63 59 57 57 50
40 34 27 35 32 27 25 26 31 33 38 47 55 59 62 66 73 63 51 51 50 54 57 58 60 62 64 64 64 67 78 85 81 65 56 55 45 58 66 66 64 63 66 66 68 66 61 56 51
32 43 38 38 36 37 26 28 44 37 46 49 59 67 72 74 74 65 60 62 53 54 56 58 65 71 77 78 78 79 75 57 50 51 49 51 61 66 67 70 64 50 47 42 38 28 26 23 20
38 38 38 53 49 50 36 29 45 46 45 51 62 70 77 76 80 84 88 89 89 74 62 54 53 73 79 78 75 63 58 63 68 64 62 62 61 60 58 51 41 36 32 25 17 16 24 31 51
41 41 49 54 61 42 31 24 45 52 52 54 59 66 72 78 79 80 78 86 89 96 77 73 52 55 67 72 69 69 72 69 74 58 53 57 56 44 37 30 11 8 8 9 13 34 51 74 77
47 47 34 44 55 48 26 41 50 54 57 57 60 64 66 71 75 82 94 93 91 95 83 71 79 80 78 71 76 75 69 66 60 57 58 45 25 13 8 7 6 10 16 38 46 77 98 87 91
40 35 42 46 63 46 26 27 53 54 60 70 54 58 61 66 68 86 86 86 90 78 75 86 86 93 98 100 97 86 73 59 55 46 27 13 9 8 5 6 9 29 70 83 93 96 98 96 99
46 44 50 40 44 50 50 34 39 42 50 54 56 60 66 72 65 67 89 97 93 93 78 88 87 98 100 86 90 72 51 44 36 20 12 11 9 6 8 18 43 62 68 73 92 100 98 99 97
44 46 47 51 44 50 55 46 48 50 53 62 66 67 76 75 68 77 78 76 83 88 90 82 75 76 76 91 80 51 41 33 18 15 14 12 10 9 15 43 65 67 64 46 42 40 39 42 47

GFSSGP_700_rhum_015.txt.gz
RH
4 3 5 12 12 19 19 38 44 48 46 43 41 42 50 56 64 74 85 86 63 44 58 66 49 38 38 38 41 41 36 24 17 19 19 18 17 16 16 16 16 15 14 14 13 14 16 16 16
4 3 8 11 16 25 36 45 44 44 44 44 48 52 46 48 27 49 79 52 44 47 61 66 53 40 44 44 46 43 24 20 21 20 19 19 18 16 17 17 13 5 7 9 10 12 12 11 10
2 5 11 18 23 22 33 44 40 38 42 37 43 54 49 44 67 38 72 25 30 35 54 69 64 48 44 37 21 15 17 22 21 21 19 11 9 14 11 4 4 3 3 4 9 11 9 9 11
3 9 18 21 18 29 42 46 42 41 43 42 42 48 67 71 55 47 47 27 24 32 49 52 50 36 20 14 16 21 22 21 20 12 5 5 8 8 3 5 8 11 12 11 8 4 4 3 4
9 13 18 20 29 41 40 38 40 44 44 45 48 67 70 64 41 32 22 25 27 28 28 19 14 14 15 20 17 17 19 9 5 3 4 6 7 6 7 13 16 17 18 18 17 18 18 18 15
15 19 20 21 44 36 36 39 39 45 44 52 49 56 71 55 32 27 26 22 18 16 14 14 16 21 18 13 16 10 3 3 3 3 5 8 10 12 15 18 20 21 22 22 22 22 22 22 22
15 24 23 25 35 37 37 34 30 38 36 54 56 55 64 46 29 27 24 17 17 17 16 20 25 22 15 11 4 2 2 2 3 7 10 15 19 23 24 26 27 28 29 29 29 29 28 27 27
21 20 27 27 29 32 31 28 28 30 35 39 48 54 56 44 25 25 23 22 19 20 26 30 28 19 8 3 3 5 11 16 23 26 28 30 31 31 33 32 32 33 30 30 30 30 31 33 34
19 18 16 24 24 26 24 26 26 28 33 32 34 41 42 30 26 27 26 22 22 25 29 29 26 13 4 6 11 15 22 28 31 31 33 32 31 30 33 31 29 28 27 27 27 26 26 26 28
17 15 13 14 17 15 12 13 13 19 26 29 30 46 55 52 33 24 24 22 24 25 24 24 22 14 7 15 19 26 31 30 33 35 36 38 38 40 38 33 29 27 25 24 24 26 26 25 26
14 12 11 11 11 11 12 12 18 24 19 18 17 42 45 26 13 12 18 18 37 38 34 29 25 11 15 18 25 27 33 33 36 41 41 42 45 46 37 33 30 28 26 24 23 25 23 22 22
14 13 13 11 8 9 9 11 14 15 15 20 22 26 28 37 14 13 30 70 74 59 73 74 55 17 22 27 36 35 38 40 39 40 41 43 44 49 42 38 35 32 30 26 25 24 25 28 28
15 14 13 12 7 10 11 13 16 16 18 23 27 36 40 46 50 50 78 85 84 78 80 70 67 62 30 36 39 38 38 40 40 42 43 44 45 47 49 47 44 38 37 32 31 36 38 36 33
14 14 14 9 6 5 11 15 18 15 16 18 32 37 44 50 57 72 56 84 80 82 87 81 87 75 50 36 39 38 39 42 42 43 45 47 48 51 56 54 48 45 42 41 42 42 41 37 33
16 17 20 18 18 20 15 21 20 21 16 20 21 28 43 48 54 67 65 58 72 82 82 75 85 66 70 58 40 37 38 41 47 48 48 48 54 54 62 60 54 52 52 53 54 49 42 39 38
13 19 20 21 23 22 18 16 21 21 22 20 22 23 29 39 49 51 57 58 70 71 81 87 86 77 78 76 70 49 37 43 50 56 55 61 62 59 65 66 66 66 67 63 67 64 43 41 36
18 19 20 22 22 24 22 22 23 22 23 24 24 25 24 27 46 51 50 57 58 74 74 88 83 69 67 78 84 66 46 54 56 56 70 78 73 64 69 71 69 69 73 75 74 74 58 44 38
19 16 20 24 22 23 20 20 22 25 27 28 26 24 26 26 47 54 59 62 66 71 77 79 77 61 76 82 72 56 52 57 61 65 68 68 69 66 68 85 86 82 80 80 61 56 58 48 42
18 18 21 24 23 21 19 21 26 28 29 30 28 31 27 28 36 50 57 60 68 77 78 77 66 73 72 76 60 55 62 70 71 74 74 82 77 75 81 82 71 63 53 48 44 46 48 45 45
19 20 25 25 29 17 24 25 27 29 28 33 32 32 33 30 32 50 56 61 65 61 62 70 59 53 60 59 61 62 68 79 78 84 77 72 85 93 89 63 55 54 52 48 48 49 48 48 50
26 22 30 29 30 18 26 30 30 35 34 36 37 38 41 40 41 48 54 51 57 62 50 41 46 56 57 59 61 64 68 68 66 68 83 94 92 71 56 55 52 60 61 62 61 62 58 49 50
33 31 29 26 23 27 26 35 34 36 38 42 46 47 46 43 41 42 46 41 40 42 46 52 55 55 58 63 64 65 67 70 73 77 78 68 60 63 60 59 57 57 66 61 57 51 43 41 36
39 30 21 17 29 31 27 28 37 40 46 46 47 50 47 46 43 45 43 46 46 49 53 56 57 50 43 39 42 55 59 59 62 64 61 69 74 74 60 58 59 57 52 47 39 29 19 14 11
38 39 37 38 39 44 37 35 40 46 48 53 56 51 57 60 63 59 54 52 52 54 50 45 48 49 63 66 59 52 54 58 61 69 73 69 73 66 54 55 52 39 25 14 9 7 7 8 9
35 40 46 57 67 65 42 41 54 54 51 51 55 64 66 68 66 65 69 78 75 70 72 61 54 55 49 55 59 75 79 82 92 87 79 69 53 52 53 32 14 10 8 7 7 7 13 17 33
42 43 43 64 82 56 23 46 57 49 55 63 68 64 67 73 75 82 87 94 99 99 97 82 69 67 61 67 70 65 77 78 85 93 91 68 54 44 18 12 13 10 8 7 9 16 38 65 76
47 28 38 47 50 54 43 56 56 54 56 64 60 66 75 69 82 88 82 81 81 86 93 90 76 74 81 88 92 90 100 100 100 96 82 54 37 18 17 17 13 10 10 13 31 50 70 72 88
40 32 46 43 63 54 39 53 55 58 60 61 64 63 68 63 68 75 76 81 80 79 74 71 71 76 98 93 72 78 93 100 95 83 59 36 28 25 21 17 13 12 16 40 60 83 71 78 95
49 47 45 40 42 63 78 46 46 57 60 60 57 61 64 67 71 70 65 62 68 85 73 61 61 71 56 52 55 72 62 50 55 62 50 43 44 40 31 16 13 14 31 58 51 33 22 18 18
26 45 47 46 50 55 56 48 43 47 53 65 68 67 68 71 69 67 70 70 67 66 66 53 37 30 33 34 21 27 70 83 97 71 69 62 64 47 19 16 17 29 58 51 22 18 16 16 22

GFSSGP_700_rhum_021.txt.gz
RH
13 14 7 14 20 22 20 26 52 49 64 73 69 69 62 61 59 64 58 48 54 55 60 60 61 52 45 38 39 40 40 34 19 22 21 20 16 11 8 7 3 2 6 6 4 6 4 6 11
14 13 10 11 22 30 46 49 55 56 54 68 59 60 67 66 57 52 59 46 54 51 54 60 58 48 43 40 42 38 28 20 19 21 19 16 7 4 2 2 5 10 14 15 15 12 10 11 7
36 12 6 18 18 32 44 53 51 53 60 68 58 58 52 47 42 55 50 40 35 42 55 64 60 48 42 45 41 19 16 19 21 18 14 4 4 5 6 11 16 19 20 20 20 21 21 20 18
32 11 10 18 18 20 44 45 49 60 53 52 64 45 46 38 45 34 36 39 32 43 58 68 62 50 47 49 15 17 20 18 15 6 4 7 10 13 17 21 24 26 27 28 28 28 29 29 27
30 10 21 21 45 37 33 52 50 51 52 50 50 53 48 48 53 48 30 27 43 49 65 70 74 62 48 15 20 19 14 9 4 3 7 14 21 25 27 28 28 27 25 24 24 25 25 26 27
16 13 21 50 49 50 56 56 51 52 52 42 48 44 42 57 37 29 28 32 55 76 67 63 52 22 18 22 16 11 3 3 3 11 20 24 27 28 28 28 29 28 27 26 24 24 24 26 27
18 14 24 43 49 52 55 56 52 46 41 44 48 39 42 30 33 28 30 36 50 49 25 17 17 23 27 14 4 2 3 8 17 25 28 29 31 33 35 35 33 34 31 29 27 25 25 26 26
19 21 21 40 54 53 49 49 52 44 40 46 43 38 28 18 31 25 19 16 14 14 17 20 28 30 19 4 2 6 13 21 26 28 34 38 38 38 37 37 36 34 35 36 34 30 25 25 25
22 20 22 48 57 64 50 47 48 41 34 33 36 41 30 11 24 24 21 19 18 19 23 29 28 22 10 4 9 17 24 28 30 36 37 35 36 38 40 41 40 39 39 42 37 34 30 26 27
21 19 18 43 42 39 40 38 34 31 34 34 32 38 33 17 17 24 24 24 22 23 26 26 27 20 11 12 17 24 31 32 37 38 36 33 32 34 37 43 45 45 45 47 42 38 36 35 34
20 14 14 32 36 29 29 18 13 22 27 15 15 14 20 10 16 25 25 26 28 52 47 58 58 53 15 18 22 29 31 36 37 36 34 33 33 35 40 46 50 52 53 54 49 43 42 41 38
19 14 16 25 33 19 15 13 17 21 18 18 18 16 18 25 24 11 17 18 40 68 64 68 49 45 34 19 30 32 34 34 34 35 36 36 38 39 47 54 57 57 59 60 57 53 53 55 53
14 12 11 10 11 13 12 16 14 14 16 20 18 21 23 35 36 36 35 40 52 39 45 55 63 69 62 41 35 31 33 36 36 38 41 39 42 48 53 65 65 63 64 65 67 69 68 67 63
13 13 10 10 10 10 11 12 13 12 15 16 18 21 23 40 46 47 46 46 45 47 60 60 56 72 72 57 63 48 45 60 58 58 48 44 49 55 56 63 68 68 68 70 66 65 66 69 67
14 14 9 13 12 11 12 13 11 15 15 16 21 25 29 53 62 66 66 63 62 58 71 87 74 72 71 80 69 62 68 68 71 66 54 54 58 61 61 66 65 66 66 71 72 72 73 64 51
14 19 20 14 12 13 13 9 14 18 18 19 23 22 28 51 64 74 72 71 78 76 81 83 81 84 84 91 79 79 79 77 69 63 60 60 60 64 69 72 78 78 79 84 74 74 69 58 45
17 15 20 21 23 23 15 24 19 20 21 19 22 22 24 38 53 67 77 78 86 85 85 89 81 85 99 98 94 76 74 66 61 66 66 71 85 88 84 88 90 91 93 86 82 72 64 58 55
12 16 19 20 20 23 25 22 23 21 21 21 23 23 23 25 36 51 66 73 73 80 84 91 94 97 98 95 85 72 58 54 64 71 86 94 95 97 99 100 99 87 86 88 73 64 62 60 56
20 21 23 22 21 23 24 21 23 22 21 22 22 23 23 26 29 36 55 62 73 77 91 88 91 78 71 68 60 55 61 74 89 94 100 99 100 99 95 89 92 95 86 75 68 60 57 57 53
21 22 25 24 23 23 26 24 23 21 22 23 25 28 28 28 27 28 41 62 73 78 77 71 77 67 60 62 72 79 97 99 99 99 97 96 92 92 95 91 75 64 53 42 52 60 57 50 44
26 25 24 24 24 27 31 42 38 33 29 32 33 35 38 44 51 47 47 52 62 59 50 52 60 65 71 75 78 83 86 80 84 76 62 61 70 67 54 40 39 68 57 48 72 68 54 42 28
28 27 29 29 26 32 34 59 64 50 43 48 44 47 54 56 54 67 64 54 43 44 54 62 65 62 61 61 67 63 57 51 48 46 44 43 41 41 50 51 96 98 88 89 80 51 29 23 22
34 34 30 27 27 32 36 46 61 64 62 58 58 65 66 62 52 47 45 38 34 40 46 52 42 40 42 41 43 51 52 52 50 44 37 46 83 80 97 95 97 88 79 76 63 34 28 26 22
36 39 42 43 42 45 52 43 59 55 48 49 50 52 54 54 53 47 40 34 38 38 42 43 42 42 46 55 68 68 59 52 48 44 44 71 72 79 69 63 56 55 57 42 44 50 38 31 25
36 39 45 56 64 66 47 49 52 53 54 50 46 51 57 61 62 56 46 47 52 53 63 70 70 67 66 71 75 73 59 54 47 42 47 48 50 38 39 39 61 70 63 66 66 60 47 44 33
37 38 44 57 72 53 51 60 59 55 56 59 67 68 70 69 68 64 59 58 59 70 80 85 83 87 66 71 73 69 58 43 27 20 17 14 11 17 46 57 52 52 94 96 95 62 52 30 30
36 28 42 44 54 54 62 65 60 61 62 67 68 71 74 74 68 73 64 64 82 90 94 90 76 64 65 66 59 56 39 19 10 9 9 8 10 16 25 48 76 98 86 91 94 68 45 40 32
30 36 37 40 57 56 58 64 63 66 65 68 68 67 72 68 73 69 70 87 91 93 91 80 71 64 60 63 54 34 15 9 8 9 16 41 53 64 71 67 93 94 83 95 62 55 64 44 28
39 28 32 40 47 65 76 59 57 60 62 64 66 62 68 74 70 74 86 90 87 89 95 79 63 57 56 49 27 11 9 10 21 40 53 74 84 85 79 78 97 93 98 92 92 82 62 30 22
25 28 33 30 45 48 52 42 45 56 60 61 65 72 70 66 70 73 81 93 95 94 85 82 65 56 45 20 10 9 11 14 20 41 78 91 76 42 46 76 85 97 92 95 85 76 68 25 39

GFSSGP_700_rhum_024.txt.gz
RH
12 14 7 10 13 20 21 20 56 62 73 79 72 78 72 75 69 63 51 63 67 71 70 63 61 60 54 45 42 44 41 38 23 21 21 20 15 5 3 3 5 10 15 17 17 16 15 11 10
14 23 12 10 18 24 33 35 54 63 81 84 79 80 83 91 62 62 61 56 60 79 70 62 63 54 48 42 44 40 27 20 18 21 19 10 4 4 6 12 18 20 21 22 22 23 22 20 20
21 32 14 13 15 23 40 55 66 67 67 70 70 72 72 69 64 67 63 68 62 65 64 65 63 52 48 44 46 22 16 19 20 15 6 6 10 14 18 22 26 27 27 27 27 27 27 28 27
32 28 12 14 14 24 39 61 62 67 64 68 78 62 67 57 61 74 67 50 37 47 64 66 64 53 47 48 33 16 20 16 12 3 5 12 21 24 27 27 26 25 24 24 24 23 22 22 22
28 19 11 19 35 36 24 54 58 56 57 62 54 47 60 30 39 48 62 43 40 48 63 73 67 57 51 41 18 21 14 6 3 5 19 25 27 26 26 28 30 29 30 30 27 25 23 22 22
30 25 17 53 55 45 32 53 66 72 68 52 53 51 49 35 48 35 36 39 44 63 66 76 74 61 25 22 23 12 3 3 9 23 26 29 34 34 34 34 35 34 33 35 35 32 28 24 22
20 16 20 54 61 63 65 66 75 70 64 55 52 41 40 49 43 35 33 44 51 66 79 70 29 19 26 25 8 2 3 16 26 27 35 38 36 36 37 39 39 39 38 38 37 34 31 27 26
22 15 24 52 56 54 58 70 58 56 59 56 52 42 24 20 30 31 32 39 47 47 24 18 24 30 26 9 3 8 18 26 27 36 37 35 34 35 37 38 41 44 44 45 45 40 37 36 34
20 18 21 25 52 54 64 54 71 57 48 50 41 37 21 16 26 24 20 17 16 16 19 27 30 25 12 4 11 20 26 29 36 38 37 35 34 35 37 38 42 46 47 48 52 46 42 42 43
21 21 20 32 43 58 48 54 52 57 44 37 38 37 23 14 23 24 23 23 21 22 25 25 25 21 10 13 19 27 30 35 38 37 37 37 36 35 35 38 45 50 51 53 59 58 50 48 54
20 21 20 40 38 41 33 49 58 42 34 21 16 27 14 15 15 24 26 24 25 31 38 36 25 14 12 21 28 32 34 35 36 37 38 38 37 37 38 43 51 57 59 58 58 64 64 59 57
19 19 18 33 37 35 35 48 39 26 22 19 20 18 22 24 16 12 23 23 40 53 58 59 56 43 19 21 30 34 38 37 38 39 42 45 40 41 46 54 57 64 67 66 64 61 60 60 58
22 15 15 24 34 29 31 28 18 18 22 18 21 20 31 32 33 32 25 29 68 57 63 72 79 74 66 38 43 38 40 47 62 60 57 54 45 49 58 61 61 70 69 69 69 67 66 64 65
18 13 12 23 31 20 20 22 15 14 16 18 23 25 39 49 51 52 49 49 53 58 81 90 89 88 84 74 80 72 45 59 66 62 65 58 56 63 65 65 69 74 79 80 76 68 65 67 65
14 12 11 14 16 13 14 14 14 15 16 18 26 25 40 50 60 66 63 62 71 77 85 88 90 85 89 83 94 84 82 75 76 69 64 62 64 68 74 83 85 77 89 90 83 84 81 78 70
14 14 11 14 12 12 14 10 15 17 18 19 23 23 31 50 58 70 73 72 77 79 87 93 86 79 91 92 95 88 83 84 85 72 70 72 79 78 84 83 96 92 99 99 91 82 79 76 65
17 18 20 19 15 16 12 16 16 16 19 20 21 24 24 37 55 68 72 75 67 72 87 87 86 87 98 99 82 94 92 91 80 87 90 94 89 97 99 97 99 100 96 81 85 88 84 66 53
15 16 20 20 21 23 24 24 25 22 21 20 20 24 25 28 40 59 72 74 71 69 77 84 91 100 99 96 91 87 86 79 94 100 99 97 89 99 82 98 85 77 71 72 73 72 58 42 32
20 20 20 21 20 21 23 26 21 22 22 21 21 24 25 30 37 41 48 61 64 65 85 100 99 91 73 76 74 80 84 91 94 98 90 98 84 80 77 70 75 71 64 65 58 39 45 63 62
20 22 24 25 22 23 24 26 23 24 23 21 23 24 25 30 32 34 37 64 70 84 89 84 85 70 65 67 71 76 88 84 92 84 66 59 55 55 51 47 46 45 42 35 40 29 54 79 68
18 25 27 26 24 24 26 30 28 24 22 22 23 25 30 32 35 42 50 61 66 63 55 54 56 60 61 59 57 60 63 59 51 48 48 47 42 36 32 28 24 18 17 24 29 26 29 35 43
26 28 32 31 28 32 33 45 45 35 31 31 37 43 51 57 57 63 60 58 44 34 38 47 54 46 48 52 49 45 44 50 56 54 52 48 40 34 28 25 31 36 39 23 23 25 41 49 47
31 31 31 31 31 27 36 36 57 61 50 44 48 60 71 70 61 53 49 41 37 44 46 41 43 50 55 48 52 57 62 63 62 63 56 46 37 34 48 44 33 19 19 34 42 44 43 45 61
30 34 32 35 35 46 42 40 49 48 42 51 63 66 61 58 56 63 64 44 51 64 73 58 60 65 59 58 62 62 67 63 59 55 44 32 26 27 20 15 13 16 23 18 28 40 53 82 78
36 40 47 57 66 69 51 54 42 44 49 56 56 56 58 59 61 65 62 74 80 71 64 65 69 77 76 75 76 73 60 60 53 36 20 13 11 10 9 9 9 10 17 34 44 86 85 74 68
40 42 44 58 78 62 54 57 51 46 54 59 58 60 62 66 67 67 71 75 72 67 71 72 83 92 88 81 64 55 57 49 36 21 10 8 8 8 8 10 14 15 26 49 72 84 76 77 62
35 28 43 42 54 55 53 58 51 50 56 60 62 62 67 68 65 68 72 72 67 68 78 84 96 96 84 74 71 52 49 34 15 9 9 8 8 10 18 19 33 42 49 84 93 97 84 90 82
39 39 36 40 54 51 59 63 51 52 57 59 60 60 64 63 65 70 66 66 68 77 87 93 94 90 81 82 60 48 26 11 9 9 8 10 12 15 19 24 23 43 46 55 93 99 95 96 85
40 33 29 34 46 65 77 54 46 52 54 54 58 62 63 68 67 69 66 69 75 88 91 95 95 94 92 64 45 18 10 10 9 9 10 12 12 12 14 18 23 30 41 93 100 98 98 90 88
31 30 30 26 39 49 52 36 40 53 61 64 67 67 68 66 66 65 68 75 90 96 93 94 91 96 63 40 17 11 11 10 12 12 9 9 9 11 13 22 30 42 57 78 84 87 86 91 95

GFSSGP_700_rhum_027.txt.gz
RH
12 14 10 10 16 21 23 28 43 63 79 86 91 89 78 64 67 71 59 59 66 72 69 65 67 64 61 51 45 47 44 38 20 20 21 16 5 3 5 13 19 20 22 23 24 24 23 22 21
10 12 14 8 14 20 26 26 47 83 93 94 98 94 90 84 77 68 64 71 68 69 75 68 71 67 58 48 48 44 32 18 19 20 13 5 9 14 18 22 24 24 24 24 22 22 21 22 22
10 13 17 10 12 19 41 66 74 81 84 87 83 80 86 83 75 84 79 74 83 72 68 69 66 62 53 48 49 25 16 20 17 11 5 10 19 23 25 25 25 25 26 26 26 26 24 22 21
11 24 18 13 15 17 50 66 74 78 86 80 73 72 78 76 73 81 94 91 90 85 75 69 60 54 50 53 38 16 21 14 6 4 13 23 26 26 28 30 31 31 31 30 31 30 28 25 22
18 15 12 13 19 17 23 66 71 74 89 73 70 68 63 64 80 88 96 92 84 81 79 71 61 53 53 49 17 22 14 5 3 16 25 28 33 34 34 34 34 34 34 34 32 32 31 29 26
16 16 14 48 52 34 29 58 67 60 74 64 64 59 53 54 86 98 87 77 77 83 71 70 63 61 53 19 24 16 4 4 18 26 33 35 34 35 37 39 40 40 39 40 39 36 35 34 32
20 15 33 59 66 72 61 73 70 61 53 67 59 57 52 50 59 58 64 60 68 70 73 71 71 39 23 26 13 4 4 20 27 35 36 35 36 36 35 37 40 44 44 44 46 45 41 39 40
19 16 38 61 61 57 79 72 73 46 70 70 64 51 34 47 40 39 58 52 53 58 62 61 24 28 28 12 3 7 22 28 35 38 38 36 35 36 36 37 40 45 48 46 46 48 49 44 46
19 17 23 50 58 70 63 48 44 50 66 58 53 37 17 27 27 33 34 35 34 24 21 22 31 28 14 5 13 24 30 35 40 40 39 39 38 37 37 37 43 48 50 53 52 50 48 52 50
20 19 20 25 62 56 64 70 50 69 68 58 47 37 16 22 26 23 20 18 17 18 25 32 33 23 10 19 28 32 36 41 40 40 40 40 40 41 42 42 46 51 54 58 56 52 48 52 59
22 21 20 35 48 50 47 55 43 65 50 28 30 35 17 20 23 22 21 20 22 25 30 29 29 16 22 30 36 38 41 41 40 41 42 44 46 44 45 49 54 58 60 63 61 62 56 52 55
21 20 22 35 39 34 48 52 52 57 31 23 24 20 16 16 22 26 25 24 44 49 58 60 42 22 32 38 41 43 45 45 44 50 54 57 54 49 50 57 63 69 69 75 78 79 77 61 51
19 21 18 41 28 42 44 46 50 27 24 21 30 30 27 22 22 26 29 53 63 71 72 79 72 38 38 45 48 51 51 46 58 66 66 64 63 57 60 69 77 85 86 81 71 82 85 71 49
20 20 17 23 34 39 35 44 27 28 24 24 38 43 48 49 44 40 34 58 77 71 83 88 87 69 64 49 56 64 68 63 62 77 76 72 70 66 73 77 87 82 86 84 72 66 88 71 43
16 12 13 23 29 39 35 27 20 17 22 26 29 41 46 56 58 56 55 70 84 78 88 87 88 86 82 81 79 91 81 72 79 92 92 74 75 78 86 85 96 85 77 81 99 81 93 68 45
13 14 15 22 29 23 30 22 18 17 19 25 26 29 38 44 59 65 63 68 78 87 89 93 87 77 91 94 99 93 77 84 96 95 93 91 94 98 90 84 98 92 83 100 91 76 57 50 52
14 17 12 15 14 16 17 13 15 18 20 20 24 24 28 38 51 63 72 73 77 82 86 89 90 88 88 98 91 90 85 94 92 86 98 98 93 98 82 96 93 70 68 62 44 46 56 51 50
16 20 19 19 15 18 17 16 23 24 19 20 20 23 26 30 38 52 56 72 71 65 63 77 86 95 100 91 71 77 84 88 82 88 96 99 88 77 75 63 59 52 49 46 48 46 42 34 24
15 16 20 21 21 23 24 25 26 22 22 21 21 22 25 33 39 50 47 50 57 64 67 82 97 98 88 73 65 63 64 67 95 96 74 51 54 53 55 54 52 48 43 36 26 16 13 12 10
21 22 23 26 23 22 21 24 26 22 23 22 22 24 28 35 43 52 55 60 59 62 72 78 81 65 55 47 48 54 55 59 58 58 56 57 55 53 50 46 40 34 27 20 16 11 10 9 8
23 22 24 24 27 26 26 27 24 23 23 24 24 25 28 31 31 37 47 58 63 62 49 42 44 45 44 53 64 66 58 54 53 52 49 50 49 48 44 39 32 22 14 11 10 9 8 8 10
24 27 26 26 25 28 28 29 28 26 25 24 23 24 27 39 49 55 55 53 42 36 57 59 49 49 60 60 55 53 56 60 57 52 52 54 50 44 35 23 14 10 10 9 8 8 9 8 13
30 33 32 32 30 28 33 35 30 30 30 27 29 40 49 55 56 60 52 42 54 53 67 68 64 61 68 68 60 63 67 64 59 51 53 48 39 25 14 10 10 9 10 9 7 6 6 9 24
27 34 35 35 32 37 33 36 35 30 29 36 45 56 66 68 62 53 63 59 60 75 73 74 63 67 69 73 73 80 70 72 56 51 44 30 15 10 9 9 8 7 6 6 6 7 11 25 46
32 34 44 48 55 50 48 52 34 36 38 48 51 61 67 63 59 62 61 65 76 75 67 65 72 73 78 87 90 83 79 66 53 41 22 11 10 9 8 7 6 6 6 7 9 11 19 35 63
32 40 38 52 62 55 53 57 47 45 41 58 69 64 62 60 60 63 63 70 69 68 68 70 79 86 96 96 96 84 90 58 44 26 13 11 10 8 6 6 6 7 8 10 13 22 42 59 90
37 36 42 43 53 50 46 50 42 42 43 54 66 62 60 60 62 64 66 73 68 68 70 81 92 97 100 99 87 93 80 48 29 14 12 11 8 6 6 6 6 7 10 18 30 43 58 95 95
44 34 40 38 52 45 45 51 37 35 39 50 57 56 58 60 62 68 73 67 62 68 78 92 98 100 99 93 93 93 57 39 21 15 13 8 7 6 6 6 8 10 17 30 47 48 78 86 79
41 37 29 32 39 45 51 32 20 22 39 43 47 50 56 61 68 68 70 64 68 78 86 94 100 100 95 98 97 54 58 24 18 12 9 7 6 6 8 9 11 16 23 38 37 58 81 75 92
38 33 28 27 36 45 46 28 20 20 27 54 58 58 61 63 67 68 67 67 72 78 93 100 99 95 100 96 69 44 26 22 12 9 8 7 6 7 8 10 13 20 32 37 39 71 94 100 86

GFSSGP_700_rhum_030.txt.gz
RH
17 13 10 9 27 23 24 28 45 81 84 90 94 99 98 91 92 78 63 58 76 74 61 62 65 57 56 52 49 50 45 27 19 21 16 8 4 12 18 21 24 24 23 22 22 22 21 21 21
12 12 13 16 19 18 20 26 50 95 92 92 98 97 96 81 70 69 74 71 78 70 65 68 66 62 56 50 53 44 30 19 21 15 8 7 14 20 24 24 24 24 26 28 27 26 25 24 22
9 11 18 23 18 17 21 52 78 91 86 90 87 90 87 82 76 81 84 82 75 77 74 73 71 64 57 52 50 24 19 22 14 7 8 17 23 24 25 29 30 31 30 31 30 29 28 27 24
8 9 18 22 18 21 41 73 84 65 75 80 82 86 84 88 86 84 77 67 86 90 82 78 69 59 58 54 32 19 22 15 5 6 19 24 26 32 32 33 33 35 36 34 34 33 31 29 28
6 19 24 22 22 24 45 82 92 80 72 82 86 78 83 68 68 66 68 86 98 92 79 74 63 62 57 45 19 23 15 5 6 22 27 33 34 36 38 39 40 39 40 41 40 38 36 34 33
18 22 22 22 37 42 44 84 81 81 65 58 53 67 58 61 54 68 99 99 95 89 78 69 67 66 54 22 25 18 4 5 24 29 36 36 37 37 38 40 41 41 41 41 41 41 42 40 38
23 21 23 38 48 61 62 80 80 70 72 54 80 78 66 67 54 96 90 84 83 95 79 74 68 62 30 26 19 6 4 24 30 38 38 36 36 37 39 39 42 43 43 45 47 48 48 47 46
25 24 39 44 46 61 83 75 72 57 51 56 75 82 64 60 84 79 87 81 80 82 87 74 72 26 27 16 4 4 19 32 40 40 39 38 40 40 40 40 42 46 47 50 50 49 49 50 54
12 23 29 50 49 72 68 70 56 51 60 62 64 67 56 57 60 61 69 72 75 82 82 59 26 29 15 5 5 17 32 38 42 42 41 41 42 43 42 42 45 50 54 54 54 51 42 42 45
24 24 22 31 50 54 52 67 73 71 64 59 62 52 28 48 41 52 57 64 74 68 34 28 32 20 10 11 22 31 37 43 43 43 43 44 46 46 46 46 52 58 60 61 61 61 47 47 46
26 24 24 44 58 52 54 59 49 56 66 60 71 39 23 34 43 45 43 42 25 24 32 36 32 17 16 26 32 37 44 44 45 45 46 48 51 52 52 56 63 65 71 74 72 66 47 47 49
27 23 26 40 50 47 50 59 61 68 56 50 40 25 23 27 19 18 19 20 24 34 38 35 25 19 24 33 37 44 48 46 49 50 51 55 60 59 61 64 73 78 83 80 73 62 58 51 45
22 22 34 38 35 37 44 55 58 57 36 28 29 22 25 23 21 21 25 37 51 62 65 54 28 27 36 39 45 48 49 53 56 64 66 65 66 68 71 78 82 86 86 85 75 66 65 76 68
22 21 22 32 31 40 50 47 57 46 30 31 28 25 26 27 28 26 46 61 73 76 81 75 56 35 42 44 48 53 56 64 66 82 100 99 91 85 86 87 92 83 75 94 89 59 84 86 63
20 18 16 27 33 42 47 43 38 30 28 42 47 45 40 39 35 30 49 77 74 82 84 88 85 69 57 46 62 79 91 84 88 81 96 93 99 94 98 99 96 82 72 88 92 56 48 53 46
16 17 16 19 23 37 39 26 18 18 28 39 43 50 55 52 50 48 53 75 74 73 78 86 88 84 81 80 85 98 79 70 68 82 98 100 100 99 100 97 90 71 66 52 48 43 43 43 37
16 18 16 22 26 31 30 22 17 18 24 30 37 44 54 55 53 58 59 64 72 79 85 88 87 84 81 96 99 86 88 98 93 98 91 95 100 98 91 75 52 53 46 46 46 42 38 33 24
20 20 14 17 16 18 26 16 15 16 20 25 29 35 44 47 55 66 69 69 71 76 80 84 90 94 99 82 94 52 77 67 74 78 74 94 82 56 46 46 48 50 50 49 43 36 25 13 11
18 18 20 22 15 26 25 21 23 24 21 21 24 30 34 39 47 57 62 64 66 76 79 87 90 95 82 58 67 61 57 46 52 64 57 53 52 51 54 56 55 52 43 36 24 12 10 10 9
20 20 26 21 19 28 26 22 25 24 23 22 23 24 29 36 43 46 52 58 65 68 74 81 83 55 50 51 41 40 40 46 50 53 55 50 46 45 45 45 42 34 23 12 10 10 9 7 6
24 28 25 30 22 24 34 33 25 23 22 22 22 23 24 28 33 36 36 44 55 65 73 56 48 47 42 47 48 48 54 60 64 65 63 54 52 52 47 37 25 13 10 10 9 8 7 5 4
28 23 27 23 30 24 26 21 32 24 24 22 23 24 25 27 28 35 48 57 56 46 40 52 59 55 56 67 64 65 72 77 71 70 67 56 50 43 30 16 10 10 9 8 6 4 4 4 4
35 28 36 32 30 31 33 27 40 28 26 23 23 24 26 29 40 53 57 49 44 53 60 61 71 66 66 71 77 81 83 87 75 78 67 51 40 22 11 11 10 9 7 5 4 4 4 5 5
25 33 33 35 36 29 28 32 19 47 48 29 28 27 31 42 53 61 50 61 58 56 65 75 66 68 71 78 87 92 93 94 83 86 64 40 19 12 13 13 10 7 5 5 5 5 7 20 19
33 39 28 36 35 31 43 37 22 35 28 31 35 37 44 53 64 55 62 56 63 71 73 74 68 74 80 86 92 100 100 98 87 89 49 31 18 18 14 10 7 6 6 6 7 8 76 96 83
40 36 28 27 32 28 50 36 34 32 33 34 44 54 53 62 62 59 61 65 72 70 65 67 72 80 88 94 92 96 96 90 96 68 55 25 24 16 10 7 6 6 6 6 8 33 82 88 70
38 36 42 44 46 51 31 40 39 38 39 43 51 58 64 63 60 61 64 71 71 68 67 73 80 87 96 97 99 100 94 96 71 51 28 28 16 10 8 7 6 6 6 8 40 80 81 75 50
44 36 42 44 46 32 22 29 24 33 36 41 54 55 65 63 62 63 66 71 71 65 70 79 85 93 93 99 99 98 97 84 45 32 28 16 12 10 8 6 6 6 8 10 76 43 76 98 82
48 44 33 38 38 28 25 16 16 20 25 38 46 51 60 62 62 65 68 74 71 69 72 82 93 97 99 100 98 93 96 54 39 27 15 12 11 10 8 6 6 8 10 15 46 66 86 51 79
40 45 38 29 35 51 50 22 14 11 14 22 42 53 59 62 66 68 72 72 71 74 83 90 99 99 100 99 92 98 65 45 29 16 13 13 12 9 8 7 8 9 12 22 61 52 62 73 95

GFSSGP_700_rhum_033.txt.gz
RH
22 18 12 9 28 26 23 21 23 53 67 81 82 73 70 82 74 70 78 64 72 78 70 58 54 51 51 47 48 48 41 27 20 19 12 4 10 17 21 23 23 23 24 26 26 26 25 23 22
18 13 12 24 23 19 16 18 49 60 90 83 93 94 86 92 79 80 66 83 81 80 66 62 59 50 50 50 53 43 27 20 20 11 6 11 20 24 24 26 29 29 30 30 28 28 27 26 24
10 10 25 22 20 17 16 40 70 80 78 83 94 88 82 98 75 79 82 78 92 73 72 71 62 54 49 58 51 24 19 21 12 7 12 23 25 27 31 32 32 34 33 32 33 31 29 28 26
8 10 23 23 20 17 20 58 64 64 71 88 80 80 86 87 94 91 83 89 82 79 72 79 72 56 54 60 32 18 22 14 6 10 25 27 32 33 34 36 37 37 38 38 37 36 35 34 32
9 20 17 20 20 18 21 66 64 76 80 79 75 70 82 89 99 85 86 86 89 87 85 89 72 60 57 50 19 22 16 5 9 26 29 35 36 38 39 38 38 39 39 40 40 41 42 42 39
18 17 19 18 18 29 28 64 67 63 54 60 66 74 67 66 81 82 80 87 90 98 100 85 67 69 61 29 22 21 6 6 27 30 37 38 39 39 40 39 40 41 43 44 46 45 45 47 47
20 18 17 17 39 51 34 57 74 74 65 60 68 73 63 66 70 83 97 99 92 98 99 73 65 66 45 23 24 12 4 21 31 38 39 40 41 39 38 39 40 44 47 48 52 52 47 41 43
18 20 19 22 42 60 49 52 69 63 71 85 79 60 92 68 72 94 85 90 100 92 88 87 77 44 26 26 15 5 9 31 36 40 40 41 40 41 41 42 44 53 55 54 56 58 60 48 43
24 21 18 37 57 61 59 70 66 64 65 60 84 82 87 68 74 86 98 88 84 93 98 88 46 28 27 15 4 5 27 35 42 42 41 42 43 44 44 46 48 57 60 62 62 61 57 53 40
20 16 16 35 40 65 56 49 59 69 61 53 54 89 45 59 69 73 91 84 86 91 89 58 28 26 14 5 5 18 36 42 43 43 43 46 46 48 49 50 54 60 65 68 71 68 60 56 55
20 20 26 24 37 46 55 58 56 41 53 67 71 55 31 51 51 78 82 84 94 86 36 29 30 21 11 8 18 34 42 44 44 45 47 48 53 53 55 57 61 69 71 77 76 70 66 58 53
23 22 24 30 49 48 42 51 47 71 51 67 70 42 26 41 59 70 76 78 40 29 33 33 33 24 14 22 27 38 85 45 47 58 60 56 63 72 62 67 72 81 87 90 75 78 70 72 61
26 23 24 43 50 45 56 58 62 67 55 53 38 24 33 48 56 82 89 30 28 31 32 33 30 21 25 33 35 41 52 54 70 74 74 77 65 67 70 81 87 97 98 90 79 72 62 75 64
24 24 31 37 42 41 45 44 58 45 55 77 26 40 71 79 90 92 90 80 50 54 57 46 30 22 31 36 40 54 66 73 70 76 76 76 82 88 87 90 97 97 91 89 80 56 44 41 40
24 23 27 33 32 39 48 34 45 32 59 72 76 74 70 71 73 75 81 54 64 66 70 70 63 34 28 34 44 48 59 72 69 68 65 67 94 97 98 96 100 100 87 77 46 47 46 41 39
21 19 22 26 26 38 37 29 18 30 57 65 69 70 67 66 64 42 48 65 68 70 72 77 80 79 73 48 46 57 55 60 64 64 80 80 97 99 100 98 90 70 50 44 46 47 42 39 33
19 22 19 20 22 27 36 40 14 19 49 64 69 77 78 72 66 56 53 68 75 60 64 72 76 82 86 98 98 92 96 92 74 76 81 95 84 87 82 59 45 44 46 47 43 44 38 26 16
22 21 19 17 22 25 24 22 13 17 42 56 68 73 80 56 52 46 50 68 74 69 68 78 81 86 89 97 62 69 81 65 68 88 84 58 53 48 48 45 43 45 50 46 39 26 15 14 17
24 20 15 18 23 20 20 19 27 15 31 50 60 73 78 54 58 59 60 61 67 68 72 77 82 90 95 57 50 55 66 65 62 44 41 45 48 47 46 45 42 40 38 25 20 20 21 23 19
20 17 22 23 15 21 18 20 32 35 39 43 52 66 75 85 48 63 68 71 73 73 75 80 85 94 73 51 46 50 43 40 39 45 51 58 63 57 49 45 42 34 22 15 16 22 20 14 9
20 20 22 21 25 23 28 25 33 21 47 50 58 61 70 80 41 43 53 56 62 69 71 71 82 56 52 44 42 44 45 48 55 60 64 69 74 67 49 44 32 20 15 16 16 13 10 8 6
24 23 26 27 28 24 28 20 27 37 22 21 23 53 71 83 66 39 42 38 49 59 66 65 49 54 55 50 59 61 63 95 88 84 78 80 84 77 51 36 22 21 20 16 11 9 8 6 7
37 24 30 27 22 32 25 20 33 44 42 34 32 27 72 76 42 33 33 50 57 54 44 50 58 67 66 65 72 78 82 87 92 92 88 89 90 69 51 36 26 22 14 10 10 11 11 10 10
23 32 34 30 24 26 20 22 20 33 34 47 66 69 69 74 42 40 51 53 47 49 55 57 64 70 69 70 74 79 83 87 90 90 88 94 88 41 31 22 20 14 11 8 8 10 9 25 37
32 30 28 32 27 28 28 25 19 21 35 39 71 71 84 49 42 48 54 51 52 53 62 63 67 68 68 75 79 81 82 88 99 91 97 89 56 41 29 22 14 12 9 7 7 8 24 50 70
32 26 29 30 26 21 32 21 22 31 22 49 74 81 82 46 52 58 57 56 57 65 64 63 63 67 72 76 77 85 89 96 98 98 94 69 50 39 24 15 14 12 9 7 7 23 38 76 76
30 31 33 34 34 35 19 19 36 26 42 52 72 84 83 61 59 63 57 60 63 69 65 66 67 73 72 79 85 86 91 94 98 98 89 63 46 25 15 14 13 10 8 6 7 26 58 52 92
37 38 31 30 38 31 16 16 21 39 39 53 68 80 88 89 80 66 61 61 64 70 68 70 76 77 82 86 87 92 99 99 96 87 64 49 28 16 15 14 12 10 7 7 8 23 43 92 85
43 34 32 34 35 30 23 18 24 28 38 46 57 72 81 88 87 88 66 62 64 70 70 76 81 82 90 88 90 96 100 92 90 69 52 30 16 16 16 15 12 9 7 8 10 58 92 67 73
40 35 35 32 28 34 44 22 19 14 32 43 49 64 75 80 83 92 79 63 66 70 76 77 81 88 94 85 92 100 98 90 72 58 33 17 16 17 16 14 10 8 9 10 11 19 34 50 60

GFSSGP_700_rhum_036.txt.gz
RH
7 18 14 11 26 29 25 22 35 40 56 80 73 62 79 68 56 66 82 83 69 75 78 55 50 46 42 39 40 39 38 25 19 19 11 4 13 20 22 22 26 28 28 27 26 25 24 24 23
7 22 15 18 25 22 19 47 45 64 68 63 65 64 74 66 79 77 96 89 67 84 75 55 52 47 45 41 44 37 31 19 19 12 7 13 21 23 26 30 30 31 29 28 29 29 28 27 25
8 18 18 21 21 21 18 51 40 71 80 73 68 50 55 71 96 90 98 97 79 93 67 57 58 59 48 50 45 28 18 20 12 7 14 23 25 30 31 33 34 34 34 36 35 35 35 34 32
8 10 14 24 22 19 32 43 50 63 74 71 86 74 71 79 74 95 98 100 90 82 70 72 79 66 52 56 37 17 22 14 7 12 24 27 33 34 37 37 36 36 37 37 39 37 38 39 39
10 19 16 17 18 18 20 47 54 62 72 70 69 72 72 73 83 98 97 92 97 79 82 86 93 82 52 53 19 22 16 7 7 24 29 34 37 39 39 38 38 40 40 41 42 45 42 38 41
23 19 19 18 17 31 27 50 55 52 67 59 70 69 45 63 68 94 98 99 98 97 98 96 98 83 57 49 23 21 7 5 22 29 36 39 40 40 40 39 40 44 46 46 48 51 51 46 40
22 18 16 17 17 24 40 57 65 67 74 58 62 88 86 51 78 82 97 98 99 99 98 99 93 72 54 27 24 15 5 14 30 37 39 41 40 39 38 40 44 48 49 49 53 53 53 51 48
19 19 18 17 16 40 64 58 57 67 67 46 67 54 89 77 80 81 92 97 96 97 98 99 89 61 61 49 30 14 8 32 35 39 41 41 39 40 44 44 46 51 55 58 58 58 59 56 48
20 19 19 18 25 52 57 64 63 58 63 55 53 64 74 58 54 92 94 92 98 92 98 97 65 63 32 28 13 6 18 33 40 42 42 41 41 42 45 46 48 53 59 61 62 68 68 67 65
22 22 18 22 29 33 41 74 59 57 55 68 78 88 68 34 65 79 88 88 98 100 73 81 67 35 28 15 5 5 26 35 43 44 43 56 51 45 48 51 53 56 64 68 74 72 66 61 64
22 21 19 25 37 44 42 54 56 57 51 67 75 60 27 46 60 78 93 88 98 92 91 79 34 29 23 12 4 11 34 38 44 46 46 48 51 53 64 59 60 64 65 69 64 73 69 71 57
20 20 19 26 51 46 47 57 50 53 53 61 73 76 28 44 62 77 88 84 95 92 55 29 30 29 24 10 12 24 34 42 46 48 49 55 53 64 64 63 68 76 84 79 84 87 84 69 42
20 23 22 36 43 47 44 49 70 49 54 66 76 30 32 46 70 77 90 92 83 45 24 26 28 29 19 15 17 24 69 55 55 54 55 57 56 60 67 63 87 83 82 96 88 80 78 45 36
22 25 30 39 36 42 50 55 67 51 59 97 38 16 31 83 83 89 75 44 24 26 32 34 27 25 24 21 28 39 60 52 58 54 45 57 57 59 73 63 98 96 94 90 68 55 41 41 38
27 24 31 32 35 42 54 64 42 53 69 69 58 29 45 81 95 81 85 57 36 50 55 56 45 26 31 27 29 34 50 60 56 41 42 44 63 72 75 82 92 98 85 50 40 41 42 42 35
26 25 27 31 27 39 42 64 44 48 61 70 72 76 72 79 82 76 82 69 77 66 72 73 73 68 70 57 39 43 59 55 60 46 63 60 68 74 87 85 72 50 41 40 38 34 34 30 28
22 25 20 27 24 31 43 40 44 42 56 61 65 64 61 63 65 73 56 64 69 48 60 70 71 72 89 91 81 75 78 85 85 83 72 64 73 87 70 40 39 43 40 37 35 35 34 31 30
30 26 27 20 19 23 37 35 39 21 52 60 64 66 68 66 64 61 53 68 75 46 51 72 64 80 88 88 94 42 50 55 56 70 84 73 79 48 40 42 47 43 42 44 41 40 41 37 32
30 28 21 18 19 20 32 30 28 30 40 54 63 72 76 76 72 43 42 54 75 66 53 67 73 78 82 90 93 46 42 37 42 51 40 47 39 44 50 54 54 51 52 50 45 45 40 32 26
28 24 28 20 19 19 20 18 22 29 33 41 58 66 76 70 49 36 50 53 60 62 64 69 74 82 87 94 60 44 39 38 38 38 39 44 53 58 63 67 69 63 59 53 45 42 34 23 18
22 21 26 24 21 18 23 16 24 30 32 35 44 54 68 76 70 36 56 64 67 70 63 70 79 78 89 78 48 46 47 45 47 52 57 63 67 70 71 74 68 59 56 46 42 29 18 18 15
23 34 26 24 24 23 25 28 21 30 37 38 40 49 57 70 83 67 47 59 55 52 56 59 63 72 60 56 55 56 59 58 66 68 65 70 73 75 78 73 57 55 51 43 24 17 16 14 10
28 29 27 22 22 27 26 35 34 34 35 45 50 54 57 65 75 91 58 44 33 37 49 63 62 51 60 61 60 64 68 75 81 87 89 95 94 85 78 69 60 52 42 22 18 16 14 10 8
33 29 29 27 24 50 36 41 38 39 34 41 51 62 66 71 81 96 96 41 37 51 65 57 77 75 58 65 64 70 74 79 84 88 87 92 91 97 81 64 50 38 20 16 16 12 9 7 7
28 26 32 65 70 44 22 24 28 37 46 45 53 61 65 83 93 90 98 86 87 65 48 57 65 63 55 62 66 70 75 78 81 84 87 93 99 86 67 54 43 24 17 18 14 10 7 6 10
36 22 31 62 94 44 29 23 24 31 33 29 55 72 74 92 92 93 90 92 61 47 56 57 61 55 55 57 64 64 67 76 79 85 92 98 90 69 51 46 28 18 20 17 12 8 6 7 11
27 28 29 34 41 37 24 15 35 38 21 32 61 71 92 87 93 90 72 64 56 53 57 64 61 61 56 58 61 68 74 80 90 98 100 99 77 61 48 33 19 20 18 14 9 7 7 8 15
20 31 34 27 40 41 20 18 42 38 37 44 61 78 88 89 97 87 76 69 57 58 59 65 68 70 69 63 67 77 78 88 99 99 100 91 66 49 32 18 20 20 16 11 8 7 7 11 36
38 35 29 25 32 49 49 26 23 25 31 39 49 66 75 80 80 76 78 76 68 62 62 63 69 80 77 76 82 84 88 98 100 100 99 95 67 32 18 19 22 17 13 9 7 9 10 12 18
35 38 32 35 31 32 40 40 26 14 16 37 44 55 70 73 76 84 84 92 84 78 68 64 70 77 79 87 87 83 100 100 99 100 98 86 42 18 18 28 19 16 10 8 8 10 12 16 24

GFSSGP_700_rhum_039.txt.gz
RH
11 13 14 12 19 26 27 28 48 47 54 47 40 47 40 43 49 64 62 74 75 66 68 71 51 42 37 35 34 33 30 25 19 18 9 4 12 18 21 22 26 26 26 26 27 27 26 26 24
11 12 15 17 21 24 26 30 43 38 52 54 66 58 51 48 51 57 55 63 87 80 78 65 50 45 39 38 38 35 31 19 19 12 7 12 20 22 26 27 28 30 31 32 32 31 31 30 28
12 10 19 19 20 23 24 49 45 39 61 64 56 54 52 50 47 55 85 94 79 94 84 57 50 46 43 43 40 33 19 20 14 8 13 22 24 29 28 32 33 32 31 32 33 33 32 31 34
11 12 16 21 23 22 23 42 51 64 60 50 46 42 50 62 60 62 88 93 100 100 75 58 55 52 50 50 37 20 20 15 8 12 22 25 30 31 33 34 34 35 35 36 38 40 38 34 36
12 14 18 15 20 20 36 44 61 59 61 56 66 58 63 63 71 74 92 95 97 97 72 67 70 74 64 62 27 18 18 9 8 24 27 32 34 34 35 34 37 39 41 41 42 43 44 42 36
13 19 21 18 17 19 40 46 55 59 59 61 71 68 61 56 79 93 94 99 94 98 93 86 94 95 87 54 20 21 12 6 19 27 34 35 35 34 33 35 38 44 44 45 46 48 46 45 48
20 23 20 18 17 30 56 50 57 54 52 58 62 62 80 50 43 59 88 98 100 99 100 98 99 93 73 36 22 20 6 9 26 33 36 38 36 36 37 37 39 44 46 48 50 52 53 52 55
20 20 20 20 19 45 54 53 60 65 60 62 65 60 50 67 50 86 100 99 100 100 98 98 96 65 67 40 24 18 5 19 30 37 40 37 35 34 36 38 41 44 46 48 52 50 54 61 55
24 25 21 18 21 41 40 43 60 57 61 54 61 73 72 83 55 80 80 95 100 95 99 98 92 76 46 51 28 17 7 19 33 39 38 37 36 36 38 41 46 48 51 54 62 57 62 71 61
24 23 20 21 30 34 41 38 52 60 62 67 63 63 73 59 68 98 92 99 100 98 91 70 82 43 35 28 16 7 9 23 30 39 38 36 38 41 40 50 55 55 57 59 59 67 66 66 63
22 22 21 22 38 43 44 43 58 56 54 80 76 76 37 59 87 91 90 100 96 71 84 83 69 32 29 19 8 5 4 19 33 40 39 39 41 40 53 63 61 62 65 69 76 76 73 62 69
21 21 21 39 38 46 56 62 61 62 58 60 63 56 46 58 86 94 80 87 94 80 78 67 39 33 25 10 7 5 10 24 34 43 43 40 43 51 58 61 56 67 87 88 85 77 80 66 44
21 20 27 40 39 56 56 59 55 54 56 60 75 65 33 57 76 77 78 95 78 76 46 40 36 23 17 16 13 10 16 22 34 39 41 45 52 52 53 62 72 79 97 91 88 80 51 40 36
20 21 37 42 49 54 50 46 45 48 58 61 64 44 46 58 59 74 82 73 60 29 34 32 32 28 22 20 17 17 19 33 42 40 43 48 49 63 69 74 86 84 100 83 79 44 36 33 32
26 25 35 38 37 51 37 33 62 53 53 49 51 38 43 61 60 47 40 35 26 32 36 39 33 32 33 38 26 27 29 33 59 48 54 49 58 77 75 81 77 85 78 58 38 36 36 38 37
28 25 30 29 46 42 42 48 46 62 66 69 61 55 94 90 93 78 29 21 33 49 48 51 55 60 66 62 53 48 43 65 70 60 50 50 62 74 71 70 78 66 44 36 39 40 42 41 38
27 25 25 28 31 34 40 41 44 66 60 72 74 69 80 88 86 75 41 25 42 54 53 57 56 73 74 70 82 79 73 71 77 80 65 68 67 68 67 74 58 37 37 42 42 43 45 43 40
28 27 29 24 29 26 29 33 31 54 57 57 57 64 62 56 42 39 33 34 38 45 48 52 55 74 69 85 82 85 53 51 45 55 53 66 77 77 67 43 36 41 45 50 52 51 41 38 34
34 32 29 27 25 22 28 29 32 26 58 57 59 56 60 50 48 56 46 34 33 38 44 50 67 78 79 82 91 98 73 42 37 39 41 40 58 40 35 42 49 51 52 56 46 42 42 39 32
35 36 29 27 20 21 31 29 31 21 29 55 57 57 57 60 47 37 48 55 41 43 45 52 65 81 82 85 92 94 54 44 40 39 49 40 41 44 55 62 59 62 62 54 50 48 45 37 25
38 36 29 27 23 18 21 26 31 26 29 43 53 57 62 57 51 45 45 62 57 51 50 58 68 78 84 82 82 82 48 49 48 53 57 57 62 68 68 66 68 64 65 60 54 48 39 25 25
32 28 31 31 28 23 23 32 26 29 30 32 44 55 50 58 61 66 63 66 59 56 63 65 55 62 72 72 58 53 54 56 59 60 62 71 76 78 79 74 75 67 67 56 50 40 24 25 23
31 30 28 26 29 25 29 30 28 31 35 34 35 37 43 50 58 57 64 73 74 64 61 57 56 63 62 55 55 52 55 60 60 61 60 62 63 68 72 79 84 69 58 51 42 26 24 24 17
37 31 26 29 34 41 27 28 36 29 30 36 37 45 49 52 54 61 70 80 88 70 48 44 54 59 56 60 55 55 62 61 60 62 68 77 86 90 94 95 75 60 51 35 23 20 21 17 10
37 33 40 54 65 68 34 40 36 30 33 32 36 44 52 56 64 68 75 83 71 48 43 42 55 61 64 59 60 58 62 62 63 71 79 88 96 92 97 100 78 54 39 22 20 24 20 12 8
35 31 42 70 88 69 35 39 37 28 39 41 42 41 46 58 68 74 80 86 70 44 44 54 58 55 58 58 58 55 59 61 65 72 80 90 93 99 98 98 91 53 29 22 24 23 14 8 6
31 31 33 36 53 61 44 27 40 40 36 38 48 48 64 61 59 61 61 43 46 49 53 50 57 70 67 63 60 58 58 64 73 83 91 96 99 99 100 98 85 61 21 23 24 16 9 6 6
24 28 35 29 50 53 34 29 43 39 36 41 61 66 61 49 48 50 51 54 56 64 70 54 63 69 71 70 72 72 76 80 84 91 96 99 94 98 98 98 85 24 26 28 18 10 7 7 8
32 33 30 31 30 60 71 31 30 30 15 25 52 57 52 48 41 41 52 56 57 63 65 59 66 70 74 74 74 76 83 94 99 100 99 100 99 97 96 94 35 37 29 24 12 7 8 10 12
32 41 42 30 33 34 39 34 27 18 19 21 18 44 59 61 66 60 55 56 52 50 47 56 72 76 78 92 86 81 88 100 100 99 98 100 98 98 80 17 52 46 47 31 8 8 10 12 15

GFSSGP_700_rhum_042.txt.gz
RH
17 9 14 13 19 22 24 21 26 50 47 49 44 51 52 49 55 55 52 58 65 76 72 61 52 47 38 32 29 28 28 23 20 18 13 4 6 17 19 21 25 26 25 27 28 27 27 26 24
16 9 15 16 20 21 22 25 30 47 59 54 48 42 54 54 53 55 62 72 74 78 71 69 59 48 39 33 31 32 28 22 19 14 8 5 10 20 23 26 28 29 28 26 26 25 26 26 24
14 10 15 16 18 22 23 41 49 50 49 54 49 48 47 45 38 41 57 78 88 83 76 73 60 48 40 36 35 33 28 19 17 8 8 14 20 26 27 30 30 29 28 27 29 31 30 28 26
13 11 19 20 21 22 24 28 55 52 52 51 49 42 42 46 45 52 64 78 88 98 96 71 66 50 41 43 40 33 20 19 12 8 14 22 28 29 30 30 32 32 32 32 33 36 37 34 31
12 15 19 17 18 19 48 43 61 66 60 53 55 48 48 52 60 62 94 92 97 100 94 90 93 65 50 52 35 20 21 14 9 11 20 28 30 31 30 31 32 34 34 35 35 36 38 41 46
22 23 23 15 20 24 43 54 59 60 62 61 64 62 58 55 65 74 92 97 99 99 97 99 99 84 70 43 28 28 17 10 7 16 25 28 30 30 28 31 34 38 39 39 40 41 41 43 49
18 21 18 20 19 21 24 47 52 54 68 68 77 64 65 54 53 58 72 98 99 99 97 100 100 98 82 71 51 25 10 6 10 24 30 33 31 28 29 30 33 38 42 42 42 45 45 56 55
22 26 22 20 22 20 41 52 51 48 63 52 72 77 69 62 59 48 84 99 100 98 100 100 100 97 72 46 34 10 6 11 24 31 30 32 30 29 31 34 38 41 44 46 49 54 58 54 52
26 27 20 20 20 27 40 41 45 51 53 65 76 71 76 72 59 79 86 100 97 100 100 96 96 70 59 41 26 12 10 18 24 30 34 34 34 35 36 39 43 47 51 52 56 66 65 61 58
26 24 23 20 22 37 41 45 56 56 54 63 69 64 71 82 61 83 87 82 97 97 96 86 84 70 50 42 31 15 8 15 26 37 39 36 36 38 39 44 54 57 60 66 72 74 70 64 58
24 21 21 22 23 39 35 44 51 62 68 70 65 63 52 49 74 91 74 100 91 98 66 84 81 45 41 34 17 11 8 18 31 40 40 40 43 43 41 42 53 64 70 74 76 81 76 67 44
22 21 21 21 24 42 48 54 67 61 64 72 82 62 57 51 80 66 57 55 53 62 82 80 52 39 35 20 9 6 8 24 31 40 41 40 41 42 46 50 56 67 71 68 69 75 75 56 32
24 28 28 38 49 52 49 56 61 62 63 71 75 64 44 61 86 75 80 82 49 36 84 67 38 36 26 18 13 8 8 22 32 34 38 42 41 50 52 58 65 67 72 69 73 74 51 36 35
32 29 30 26 46 50 47 47 56 61 62 61 53 39 57 64 73 68 72 87 48 38 42 46 38 31 27 20 11 11 17 30 44 46 46 44 52 57 61 76 74 74 80 84 80 51 37 37 43
34 35 40 40 48 48 44 48 51 52 63 46 53 30 54 63 71 74 78 84 28 30 41 34 31 27 24 26 24 28 31 34 42 51 56 55 56 52 65 75 79 78 79 70 45 37 40 44 48
29 37 48 51 46 38 38 45 51 55 56 54 36 32 48 63 57 45 38 33 29 46 48 45 52 54 51 58 55 51 56 64 61 67 69 64 61 54 60 64 74 70 73 43 36 42 46 49 47
28 28 32 45 36 35 28 41 47 54 66 73 52 48 63 71 54 39 32 37 49 48 46 53 61 71 72 71 73 71 70 65 61 57 75 76 71 64 66 71 74 70 45 38 45 50 50 49 44
29 28 26 28 36 38 29 32 31 53 59 65 69 62 73 50 32 32 32 40 53 53 51 55 62 66 67 68 67 70 75 70 66 54 44 39 43 53 63 72 71 44 43 51 52 48 51 48 45
36 29 30 30 30 33 27 28 31 33 60 67 69 59 44 40 39 41 32 36 48 45 44 49 56 61 65 69 69 73 82 81 58 42 39 39 41 38 39 53 40 50 59 53 51 54 55 51 43
38 40 33 30 27 31 31 27 31 33 31 59 59 58 54 50 51 48 43 40 35 37 43 48 54 62 68 72 76 81 85 77 53 44 43 47 51 45 41 45 53 59 60 58 58 60 58 50 43
37 35 33 29 31 30 25 28 31 33 36 60 58 51 53 53 52 46 40 35 34 33 42 53 61 63 71 80 79 75 77 66 49 50 47 53 52 50 59 67 67 69 73 80 71 64 56 47 39
39 36 33 30 31 31 29 29 28 30 24 44 56 55 53 52 53 54 55 59 54 47 49 54 59 63 67 70 75 73 73 54 52 51 57 60 58 63 66 61 76 75 71 78 64 60 51 44 35
35 32 34 32 32 33 30 27 27 28 26 32 42 44 47 51 49 48 51 54 62 68 72 78 70 60 62 61 66 72 57 54 54 55 59 62 67 62 67 79 83 92 98 99 76 66 53 37 30
39 39 37 32 34 40 36 39 29 30 27 29 30 34 35 48 50 52 60 67 65 69 82 81 76 69 66 57 67 62 56 51 52 59 57 60 63 70 81 89 92 98 85 99 88 66 50 26 24
36 37 40 49 60 52 35 37 31 31 32 30 30 32 38 50 57 56 58 64 65 67 78 85 85 82 79 67 63 60 56 53 55 61 61 65 74 83 98 99 100 92 83 94 74 67 28 22 31
39 39 36 46 72 56 38 41 33 27 29 31 33 34 38 47 57 60 62 68 73 76 78 72 53 58 63 68 62 61 60 59 63 67 69 84 99 100 99 99 96 98 97 97 87 50 20 36 26
34 40 36 36 55 56 40 31 37 37 28 32 35 38 41 46 56 59 62 66 67 68 72 60 60 62 68 64 73 69 78 93 93 90 93 97 99 99 98 99 100 99 98 96 92 32 47 34 14
43 36 35 37 53 61 39 35 40 39 27 28 22 37 40 39 46 60 65 63 67 67 62 68 71 73 63 66 69 76 82 86 95 99 99 99 99 99 98 100 99 98 99 84 26 60 71 26 8
31 32 30 32 34 60 66 31 40 30 11 20 18 20 16 34 36 28 20 22 32 43 56 64 69 84 68 65 73 74 78 88 100 100 100 97 91 97 100 99 98 99 55 29 62 91 33 11 11
34 36 37 34 34 36 38 32 28 25 21 22 22 24 32 49 40 23 19 19 25 32 36 46 50 54 70 76 78 86 85 91 100 99 97 99 96 96 97 100 99 87 60 83 74 34 43 15 15

GFSSGP_700_rhum_048.txt.gz
RH
26 23 19 11 15 16 17 19 21 22 25 29 58 55 49 58 63 55 58 55 63 71 61 55 51 66 71 62 46 40 33 30 24 22 18 8 5 12 16 18 18 18 21 22 21 22 23 22 22
27 22 15 15 17 20 18 21 23 46 41 33 62 64 71 64 64 62 63 58 65 69 64 57 55 73 82 72 52 45 39 29 23 20 12 7 11 18 18 21 22 21 21 21 24 25 26 26 26
28 18 13 17 17 17 20 23 25 41 61 57 59 55 60 61 63 63 64 71 66 68 66 58 56 77 88 80 58 53 39 31 21 16 8 13 17 23 24 24 24 23 24 26 28 28 29 29 30
22 16 14 16 13 16 21 24 32 50 51 59 56 59 58 55 42 50 62 74 76 73 72 59 70 80 98 96 67 53 30 24 18 10 13 21 25 27 28 26 27 28 30 31 32 35 36 37 38
17 16 14 13 16 18 21 31 49 46 57 57 61 65 58 52 46 52 60 82 85 90 79 71 80 94 100 91 70 39 41 13 10 13 22 27 29 31 29 31 32 33 33 34 38 42 42 42 41
17 15 15 16 17 20 21 25 53 60 56 47 59 68 60 54 50 47 55 84 90 93 86 86 85 95 100 96 60 56 19 15 15 27 31 32 34 30 31 35 38 38 40 41 44 45 47 48 47
17 16 18 22 21 20 32 40 38 55 48 56 56 64 61 55 54 53 54 62 96 95 98 99 99 99 99 95 73 31 18 18 22 31 35 37 35 33 33 35 38 41 42 45 46 52 56 56 55
17 21 21 19 20 28 43 44 42 52 53 58 48 65 60 60 59 62 64 53 59 81 100 98 100 100 100 91 43 37 47 37 30 37 40 41 37 34 35 36 37 42 48 52 55 60 55 57 63
18 25 27 21 23 24 28 40 44 48 50 59 66 65 66 65 64 74 64 74 83 100 100 100 100 95 98 76 71 68 53 32 40 39 45 44 39 34 33 35 41 50 55 57 62 63 59 62 65
20 29 23 23 23 23 28 44 46 51 59 66 62 62 69 52 64 73 74 84 75 83 99 99 99 99 96 94 71 43 37 38 40 43 46 42 40 37 39 42 44 51 57 60 64 59 62 60 50
26 28 25 26 24 22 26 47 48 56 65 68 72 66 60 40 66 64 76 99 100 100 100 100 100 100 97 93 46 29 29 40 41 44 47 45 43 43 42 44 52 63 61 64 60 60 65 61 34
29 24 30 28 26 24 45 52 56 59 68 72 76 58 46 44 55 66 58 100 100 99 99 100 100 99 68 58 27 27 40 40 42 46 49 51 48 42 49 54 59 59 65 63 59 64 61 39 34
26 34 27 28 32 43 52 49 62 69 72 78 68 64 44 51 54 46 55 70 97 98 89 58 53 51 38 24 18 30 39 43 43 48 51 49 47 52 52 62 64 62 61 61 66 66 54 37 43
37 30 34 32 43 54 49 50 53 52 69 65 73 72 52 65 59 51 38 46 54 50 51 53 61 49 28 16 12 17 29 36 46 47 48 49 50 55 60 63 61 59 65 73 79 71 45 45 50
38 46 42 48 53 41 39 47 52 50 41 53 73 62 59 51 61 73 42 49 58 66 51 47 40 27 19 14 10 12 28 33 44 50 56 54 58 61 66 68 73 77 86 90 87 63 46 53 60
40 37 42 48 41 40 43 42 42 48 50 46 51 50 49 46 55 75 85 41 53 54 46 38 30 23 18 14 14 15 24 36 46 66 61 66 73 72 74 67 66 71 77 84 75 50 56 64 63
40 37 43 44 43 42 39 38 35 45 52 56 46 46 43 43 50 71 55 39 46 41 42 38 39 36 37 35 33 35 42 52 74 73 63 66 64 60 58 49 55 53 78 65 52 58 68 70 68
36 36 37 38 40 38 38 37 39 42 51 50 40 31 36 43 34 38 36 46 52 49 49 53 58 56 61 64 64 66 64 73 73 74 70 66 66 60 53 51 54 56 55 47 54 70 77 76 72
39 35 32 33 38 32 30 34 40 40 51 47 46 30 38 40 54 54 43 46 48 52 59 65 65 65 66 67 72 78 79 78 80 80 74 69 67 62 54 50 53 52 49 55 68 79 68 65 59
40 39 34 32 36 32 35 33 43 41 38 34 32 35 28 37 32 35 39 41 42 45 48 51 58 63 69 72 76 78 84 81 80 77 76 85 76 63 54 51 53 54 55 63 74 68 71 68 65
39 38 35 32 33 32 34 31 31 40 40 40 39 39 48 35 31 31 30 31 34 37 41 45 50 55 63 68 69 68 68 74 78 85 94 100 85 62 55 51 57 57 60 64 70 75 74 77 79
42 39 38 34 36 37 35 36 28 26 32 34 35 35 27 41 47 52 50 44 43 46 46 47 52 57 61 68 72 70 72 73 80 84 87 74 59 54 55 58 54 57 63 68 76 81 89 77 88
41 39 40 36 39 38 35 37 31 28 27 28 29 27 24 27 43 46 46 48 54 60 60 64 68 62 69 76 76 74 70 77 76 84 78 64 59 57 57 59 59 63 67 74 81 92 74 97 97
40 39 38 38 42 46 34 38 33 29 27 28 28 28 26 26 34 40 46 55 63 63 61 64 62 69 70 74 74 80 84 86 84 84 76 66 61 60 59 61 64 69 84 95 87 96 96 79 89
42 37 42 50 59 54 38 43 31 28 31 31 30 30 29 27 32 38 41 44 50 56 60 63 65 61 66 73 76 80 98 83 81 77 74 66 66 67 69 75 86 87 97 98 94 95 96 97 86
40 38 42 44 64 45 40 40 26 31 28 28 28 32 32 31 31 34 37 48 57 58 62 75 69 68 79 77 81 74 65 84 82 80 71 68 72 75 68 99 98 94 95 88 99 100 84 91 99
38 39 41 39 56 62 37 32 24 27 35 35 33 34 35 36 35 36 43 52 60 64 75 76 81 83 80 80 82 75 77 74 81 84 83 78 63 58 99 95 99 92 87 98 87 97 100 100 94
40 41 42 43 51 52 42 36 28 32 20 16 12 11 25 39 39 41 43 52 65 72 79 91 96 79 80 85 80 69 60 67 74 70 69 83 88 71 81 82 81 94 98 97 99 99 98 98 91
40 42 42 41 39 55 66 38 29 24 18 20 24 20 13 20 34 35 33 32 24 32 48 59 51 45 50 52 54 52 51 60 67 89 93 86 86 78 81 93 99 92 97 98 100 90 98 87 80
34 36 37 40 41 42 45 36 29 26 28 28 27 26 22 17 12 12 18 22 25 26 29 36 50 54 58 57 60 73 82 93 95 95 69 73 84 77 79 98 79 91 99 96 93 96 89 87 84

GFSSGP_700_rhum_051.txt.gz
RH
26 27 24 16 15 15 17 19 20 20 42 37 38 47 40 56 58 57 57 62 64 64 69 71 71 64 70 62 50 46 46 43 28 23 16 10 5 13 18 21 21 22 21 19 20 23 24 26 28
29 28 21 13 16 18 17 20 21 25 41 47 52 55 60 69 65 69 67 69 65 76 81 73 63 68 81 74 62 52 48 38 25 20 14 9 9 16 20 23 23 22 23 24 25 25 25 27 30
29 27 18 16 16 17 18 22 23 24 42 48 62 70 68 74 68 62 65 60 63 74 81 73 71 80 87 84 76 59 53 35 24 28 12 9 15 22 24 27 25 25 26 28 29 32 34 35 35
29 24 17 17 15 15 18 23 36 35 37 50 62 63 62 59 61 49 45 57 78 78 87 75 74 72 78 89 92 66 53 31 27 12 12 14 24 26 28 27 29 31 31 33 35 40 43 42 42
26 20 16 15 18 18 18 22 49 51 56 59 57 63 65 60 55 49 48 59 78 88 88 83 75 84 98 100 99 71 42 29 18 12 16 23 29 30 30 32 34 36 36 37 42 44 46 49 47
22 17 17 17 16 17 22 28 48 59 59 49 52 57 60 61 54 50 62 75 83 96 97 90 87 93 100 100 96 66 34 36 14 16 22 30 31 31 33 36 38 39 41 42 46 50 52 52 51
20 17 17 20 20 17 28 44 37 54 45 44 53 52 58 58 62 54 58 67 80 93 98 99 98 100 100 100 63 40 40 18 19 28 33 34 35 34 37 39 39 42 44 48 53 56 56 52 54
20 21 24 19 16 24 30 39 54 47 49 50 59 54 62 64 64 64 62 68 73 92 99 99 100 99 92 95 76 39 38 22 29 30 35 37 40 38 39 39 40 45 51 56 58 61 59 56 59
22 20 23 20 19 24 23 31 45 46 52 62 63 63 53 73 70 67 66 69 64 78 92 98 100 99 97 95 70 38 40 45 38 36 42 42 40 39 40 41 45 51 59 62 66 60 59 64 59
21 26 23 25 26 26 27 34 40 46 59 62 65 66 71 70 63 60 73 77 86 91 98 100 100 100 98 97 91 53 63 69 38 45 49 47 42 41 44 44 46 59 64 64 65 59 56 59 51
27 25 24 24 26 28 28 35 45 51 56 69 72 68 64 54 56 54 53 74 95 99 100 98 99 99 99 100 92 89 68 49 39 48 49 47 44 44 44 46 54 68 61 65 63 57 59 57 38
32 25 26 27 30 30 39 49 48 56 63 71 74 66 48 55 42 48 82 100 97 89 97 100 100 100 100 100 98 64 48 47 42 48 51 49 45 47 49 52 61 62 68 66 62 60 66 53 36
27 36 27 27 27 41 51 46 48 55 66 79 74 57 51 56 38 35 44 100 99 100 100 100 100 99 99 93 61 44 34 40 47 50 51 48 52 50 54 56 66 69 67 64 69 72 72 46 41
35 38 36 28 29 54 51 47 45 46 71 75 93 70 61 55 55 27 41 53 92 94 97 99 91 69 49 37 32 37 39 40 45 48 51 52 50 57 56 66 70 68 71 74 74 79 64 45 53
37 46 42 45 48 44 41 44 52 49 48 62 69 70 53 70 72 31 53 40 42 57 56 54 60 58 36 23 30 40 48 45 43 47 49 52 53 57 66 73 74 71 65 72 85 77 49 55 60
39 40 36 47 49 42 45 42 46 56 52 45 46 52 64 70 72 68 40 64 59 46 55 53 41 25 18 15 18 26 37 45 44 50 63 76 73 80 78 71 61 51 52 68 72 52 51 64 67
40 36 42 47 45 48 45 41 40 49 54 52 51 50 52 57 56 65 51 44 51 50 44 45 34 24 16 14 14 19 26 34 46 58 79 77 72 72 68 69 54 53 55 54 50 51 64 70 62
34 34 34 39 44 46 45 34 43 41 48 55 55 33 45 42 48 44 44 47 43 45 39 36 31 28 27 31 34 38 43 46 58 75 80 74 70 72 70 65 56 56 55 52 54 60 68 66 66
38 34 33 30 38 38 34 34 34 44 40 43 44 31 35 47 32 28 40 50 51 47 43 43 43 48 56 61 63 69 66 69 74 78 83 80 75 74 72 74 59 54 55 56 57 61 65 71 75
41 37 35 35 37 35 31 30 27 33 38 40 43 31 33 37 26 29 36 41 48 54 59 61 64 63 65 70 77 80 83 81 83 89 81 83 92 86 80 74 58 52 54 56 57 59 63 72 75
42 36 36 36 36 33 31 29 27 30 34 36 36 42 35 30 30 29 31 37 43 45 49 56 59 63 69 74 79 78 74 72 82 77 86 97 98 74 76 72 56 54 58 58 59 62 66 79 94
40 40 39 39 38 36 34 35 29 30 28 27 32 36 36 40 33 31 30 30 33 37 42 46 50 52 58 67 68 68 80 86 86 85 95 100 82 67 68 82 57 57 59 60 63 64 72 90 86
44 41 40 38 36 38 35 37 29 30 28 26 25 27 32 32 43 47 44 42 44 45 48 50 56 59 61 68 72 73 76 84 88 91 91 90 92 80 74 63 58 60 61 62 65 76 97 98 91
46 43 39 39 39 46 36 36 31 29 28 28 28 28 28 31 30 42 51 53 55 56 61 66 67 69 73 75 78 83 76 94 100 99 95 93 88 79 65 60 62 67 72 75 80 97 98 96 100
44 43 44 45 50 47 38 46 32 26 31 30 29 30 30 28 31 30 42 46 51 60 58 62 66 70 75 77 83 81 68 73 95 98 96 93 80 73 70 69 82 98 99 98 94 92 99 98 92
44 42 40 46 49 40 43 40 26 27 27 29 28 26 30 28 28 28 33 38 46 54 61 65 69 76 77 78 81 75 75 72 75 80 98 97 84 96 98 98 93 98 84 91 83 100 100 98 84
44 43 40 40 55 56 37 33 28 33 39 31 33 32 32 33 32 32 32 34 41 52 64 70 76 81 83 77 74 75 78 76 74 83 92 90 96 100 100 98 92 88 92 100 93 100 96 86 94
43 41 43 45 53 53 41 36 25 30 20 21 19 12 12 28 35 34 36 40 47 57 65 72 78 85 94 89 80 72 75 72 66 76 92 87 97 99 99 90 97 99 99 99 93 99 81 100 96
49 45 43 42 40 44 49 34 30 27 25 20 26 25 18 10 19 29 37 39 36 49 52 66 70 60 58 83 74 64 66 65 67 82 84 90 99 96 98 99 95 95 91 98 91 95 99 93 70
30 39 42 42 44 42 44 38 30 28 29 29 29 27 27 21 11 10 12 16 21 22 20 20 25 42 53 64 70 72 73 83 90 98 98 100 97 94 92 91 100 92 99 83 99 96 95 61 47

GFSSGP_700_rhum_057.txt.gz
RH
11 13 16 27 23 19 15 14 12 22 24 28 39 45 45 38 70 84 94 69 58 51 52 55 68 78 67 58 56 58 52 60 54 42 22 9 7 12 17 20 22 22 21 24 25 24 26 28 28
13 17 21 27 22 14 13 12 20 18 32 63 42 46 60 56 51 58 60 70 48 46 52 57 61 86 75 65 59 55 54 64 63 39 21 8 12 18 20 23 23 26 26 26 28 32 33 34 34
16 21 33 26 18 14 13 21 20 28 53 46 50 49 77 76 56 47 49 65 49 62 45 55 59 85 83 73 63 57 63 67 58 32 18 10 19 21 24 25 27 32 30 33 39 40 40 39 38
30 31 25 19 15 14 13 17 22 39 48 52 46 66 51 66 63 59 63 66 66 77 67 59 63 96 88 76 69 67 69 61 51 28 15 14 22 25 28 29 33 38 37 42 44 45 46 44 44
26 24 20 19 15 14 16 16 26 42 56 53 54 50 81 57 56 52 51 53 58 88 85 70 70 95 97 86 83 80 69 58 45 24 12 18 25 30 29 32 37 38 44 48 50 48 47 47 47
28 21 18 14 14 15 16 22 33 49 60 61 55 58 76 55 55 50 49 49 64 95 93 89 93 98 100 98 97 90 74 59 35 20 16 22 27 33 35 37 38 41 47 52 54 52 50 50 51
26 22 18 16 15 16 19 43 42 58 62 50 64 60 75 50 54 54 46 69 71 79 87 97 99 99 99 99 100 94 75 48 27 17 24 26 32 36 38 40 41 44 50 54 56 54 52 52 55
26 22 18 16 16 21 37 45 60 62 63 58 48 69 95 63 54 59 59 67 62 82 95 97 97 100 98 99 98 81 37 19 25 25 28 34 39 40 44 43 43 49 55 60 58 56 54 52 55
27 21 17 19 18 23 32 38 52 58 51 45 54 54 61 57 56 63 60 70 69 64 63 79 84 78 94 90 96 99 83 32 32 31 37 42 44 46 44 42 45 53 57 59 58 57 56 58 46
24 20 19 21 20 22 25 30 40 62 70 78 78 57 64 66 62 58 62 82 72 69 90 79 95 94 98 91 98 98 92 52 37 42 45 54 50 48 46 44 48 55 59 59 60 57 58 57 50
23 20 21 20 23 23 24 26 40 54 54 41 90 66 65 67 68 71 60 60 72 82 96 100 96 100 99 100 100 100 97 63 49 51 61 72 65 50 51 48 51 64 63 65 65 61 60 66 52
24 23 23 23 26 32 34 39 50 52 75 77 54 71 70 65 51 59 56 46 52 83 94 100 98 99 98 100 100 98 97 88 66 82 82 82 61 58 53 50 59 67 71 68 64 62 69 74 53
27 24 27 32 31 32 45 53 54 62 64 46 70 77 69 54 51 38 34 62 97 86 99 92 90 100 100 100 100 98 100 95 89 91 85 62 62 58 52 53 62 69 71 69 67 75 79 80 53
30 28 36 38 33 40 44 50 57 63 34 51 80 76 60 33 25 29 45 70 97 100 100 99 100 100 100 100 100 99 99 100 94 72 65 67 62 60 57 60 66 73 73 71 78 65 79 65 44
31 32 42 39 39 42 50 51 56 46 44 48 60 75 74 68 32 26 26 41 84 97 100 100 100 100 100 100 100 98 92 94 76 66 70 66 59 60 61 62 68 77 76 71 59 62 59 45 46
29 29 33 53 54 42 44 67 68 64 83 87 100 84 81 78 51 34 27 24 44 78 99 100 99 97 98 99 96 89 77 76 68 65 62 59 59 65 70 65 76 82 71 56 56 50 46 47 52
25 26 36 41 42 43 40 53 61 63 72 76 92 84 64 59 71 39 38 32 31 44 63 68 75 77 82 92 85 77 80 65 56 56 54 57 62 63 73 71 90 77 71 54 52 49 50 51 54
19 27 24 32 43 36 42 37 40 60 66 72 78 54 55 58 72 46 49 43 36 38 43 43 39 64 81 76 67 58 53 47 47 48 52 84 84 73 78 83 82 77 74 60 54 56 52 53 54
26 25 23 42 45 37 32 29 32 55 63 67 84 58 39 53 60 52 39 40 42 32 22 19 18 18 27 44 44 40 36 38 40 46 51 58 67 81 84 81 82 79 79 78 61 53 52 56 56
27 26 23 24 30 32 30 31 40 37 56 62 73 42 33 91 41 31 40 40 40 34 28 22 19 17 15 15 20 27 32 38 42 48 52 68 69 83 90 85 84 85 88 80 62 58 57 59 58
32 29 25 26 34 33 29 27 34 30 48 56 64 72 65 32 25 22 36 46 46 46 44 39 36 36 37 44 38 35 35 36 42 48 57 62 85 84 98 97 99 99 98 66 66 66 66 80 65
31 29 29 33 29 25 36 27 37 30 36 52 57 60 73 41 25 24 31 40 45 44 48 52 52 54 58 63 75 70 66 66 69 74 77 83 88 99 95 98 100 100 97 70 74 99 84 85 88
31 40 35 31 29 27 30 24 29 26 24 30 44 55 62 69 27 27 28 32 36 42 41 44 48 50 55 58 63 67 72 75 78 80 83 89 93 96 94 92 96 100 100 99 100 100 93 98 87
35 40 36 37 32 30 26 30 29 37 23 28 28 43 55 64 67 33 29 30 33 39 43 47 49 51 56 56 57 63 67 74 77 80 82 87 93 99 100 99 98 100 98 100 100 97 89 96 97
41 35 37 45 34 33 30 28 24 36 26 26 30 31 41 55 68 69 72 33 31 33 36 40 44 47 51 56 61 66 72 78 85 96 88 93 98 90 88 100 97 100 96 100 100 99 99 98 86
40 34 37 51 46 33 38 27 24 27 29 28 30 37 40 43 57 68 72 57 35 41 41 44 51 55 59 64 78 80 85 86 88 80 76 87 91 95 96 94 98 82 97 100 100 99 97 88 98
31 38 33 38 44 40 29 25 26 27 29 30 32 39 43 29 45 58 71 74 49 43 50 54 57 64 70 74 81 86 83 96 91 92 93 89 91 87 81 85 92 98 100 99 99 98 99 99 99
37 43 38 37 51 48 25 23 22 26 25 26 28 33 46 36 43 53 62 75 84 78 52 53 60 66 82 86 91 90 89 90 91 89 90 90 84 77 73 88 100 100 100 100 99 96 98 100 100
41 42 39 36 34 47 38 23 26 25 26 26 28 33 36 31 22 32 36 59 79 91 94 44 48 61 70 79 76 81 79 82 95 92 67 70 73 73 82 91 99 100 99 92 95 98 85 100 100
42 38 37 38 39 40 35 39 33 28 28 32 32 33 38 22 20 12 17 34 37 42 52 40 38 51 68 68 72 75 78 65 59 66 73 80 83 90 97 98 100 100 98 99 98 94 76 100 98

GFSSGP_700_rhum_060.txt.gz
RH
10 11 12 17 29 25 20 16 13 12 21 33 31 30 38 41 38 38 52 60 81 99 95 57 56 65 70 62 52 50 51 55 46 32 20 8 8 13 16 19 20 18 20 22 22 24 26 27 28
10 10 24 30 26 21 15 15 18 20 34 35 44 34 31 33 42 33 37 34 32 46 88 69 61 64 73 62 59 58 62 57 51 40 21 9 10 17 20 21 21 23 25 26 28 32 34 34 34
13 16 36 32 26 19 15 15 18 21 27 40 40 44 51 56 89 60 47 42 44 40 49 63 58 87 81 68 62 62 56 53 55 42 21 10 13 20 23 23 26 27 30 36 39 39 38 37 37
23 32 30 23 18 17 15 18 18 22 29 40 39 41 53 78 94 65 59 56 60 69 54 68 71 93 91 76 68 66 64 73 69 39 19 11 18 24 26 27 31 33 39 44 45 44 44 42 42
34 27 23 19 17 15 13 16 15 18 28 41 42 60 44 40 68 66 61 65 78 81 81 90 87 86 96 84 74 74 78 84 60 30 14 15 23 27 28 34 36 41 45 46 45 46 46 47 47
35 25 19 15 15 20 16 15 20 25 34 45 48 97 57 44 60 63 55 53 71 79 95 90 97 98 100 95 89 83 81 69 39 21 13 20 27 30 32 38 39 44 46 49 47 44 44 48 48
28 23 20 17 14 18 20 27 31 41 49 48 64 92 95 63 64 60 70 72 74 73 75 91 100 99 99 100 98 91 74 52 25 15 21 27 32 34 37 40 41 45 50 50 46 45 46 49 49
25 21 19 17 15 19 20 26 34 39 70 62 59 59 67 42 58 62 64 72 70 73 74 80 77 89 100 100 100 94 66 32 16 23 28 33 37 40 43 44 44 50 53 51 47 47 47 45 38
24 23 19 20 20 19 26 28 32 38 66 54 61 53 54 64 66 58 67 76 67 70 66 71 76 59 74 76 98 98 88 72 32 30 35 42 46 46 48 44 48 55 55 50 51 48 50 50 44
23 21 19 20 19 18 22 23 28 30 43 53 98 60 68 70 67 67 68 65 62 61 55 55 75 89 84 82 78 91 96 90 44 41 47 50 51 55 51 52 52 57 61 55 53 53 55 59 50
22 21 19 19 20 21 21 24 23 28 41 54 43 40 57 66 64 63 64 58 46 51 60 79 100 98 98 93 97 98 99 100 58 61 61 57 59 56 54 49 52 57 58 58 57 57 60 58 58
23 21 21 20 21 24 27 33 38 42 69 44 33 70 70 68 62 47 52 43 36 40 74 89 100 98 96 97 100 100 98 99 59 68 70 80 85 77 70 54 57 66 70 64 62 59 62 63 67
23 25 21 23 28 26 28 34 44 84 80 36 53 68 67 67 45 37 25 28 74 98 99 98 95 100 99 100 99 99 98 96 94 96 83 96 76 68 68 57 60 70 68 63 61 64 60 66 66
25 26 25 31 39 32 32 37 40 68 80 43 41 76 69 45 21 21 21 22 64 94 98 99 100 97 100 97 100 100 99 99 96 94 92 95 73 71 61 56 67 67 68 64 67 60 60 62 59
28 26 27 30 35 37 42 45 51 53 84 97 62 56 82 49 47 24 21 21 28 81 98 99 99 100 100 100 100 99 99 100 97 93 92 88 72 67 57 58 59 69 68 70 57 54 52 54 45
29 26 27 35 41 43 57 44 46 46 60 94 72 62 78 66 50 25 23 18 26 72 97 98 99 99 98 99 100 98 97 98 89 83 77 67 63 62 59 59 64 72 80 72 59 57 56 51 46
25 24 23 38 40 44 55 45 59 57 66 81 62 69 68 58 48 40 31 20 29 50 64 75 85 99 99 94 81 70 86 70 64 63 66 65 63 59 60 68 76 82 86 69 62 58 56 54 50
22 20 24 32 40 41 39 37 44 45 75 68 75 43 40 46 48 38 32 24 28 33 48 52 63 71 72 80 72 72 85 72 67 64 62 60 57 58 66 77 79 79 84 73 72 70 63 56 53
26 25 24 40 34 27 34 29 40 42 65 60 66 45 33 67 41 65 35 25 20 22 28 34 55 57 63 68 69 68 69 55 53 58 57 54 64 75 80 78 82 83 84 83 80 83 74 68 62
30 21 20 24 36 39 29 26 30 37 56 55 64 59 45 77 50 58 41 32 24 21 19 17 19 34 63 61 57 43 45 46 46 46 45 49 63 72 83 87 92 87 83 87 81 95 95 89 75
28 26 23 25 37 32 29 26 26 33 46 48 60 67 47 88 37 28 35 40 38 31 29 30 26 16 18 22 35 38 43 43 41 40 42 47 69 75 86 83 83 91 90 92 90 100 99 100 98
31 28 27 24 32 24 32 30 35 35 37 45 53 61 57 38 30 19 27 40 38 41 45 45 47 48 48 47 34 29 36 40 46 45 48 59 60 61 75 84 87 95 91 95 97 98 100 99 98
31 34 35 31 27 26 26 37 40 34 36 38 48 54 65 50 24 24 26 34 41 41 41 48 50 48 52 54 58 79 89 67 63 69 73 72 81 85 89 92 96 100 99 98 100 100 99 100 100
33 33 35 34 30 34 27 32 26 34 35 29 35 48 53 63 50 25 27 30 34 40 40 41 42 45 47 46 55 68 93 81 71 75 77 79 92 86 87 90 93 90 99 100 100 100 100 100 99
37 34 36 56 47 42 26 24 26 33 35 32 31 35 42 53 60 52 26 27 28 30 33 36 41 40 43 47 56 60 67 68 69 70 75 96 74 84 97 90 92 94 89 100 93 99 100 99 99
37 35 37 49 79 53 43 31 24 30 31 30 28 28 35 41 56 64 67 44 30 29 30 34 36 41 44 49 57 61 66 61 83 86 96 95 87 81 81 79 80 91 93 90 98 100 100 99 98
31 39 33 34 48 66 49 37 28 28 27 28 29 32 37 40 44 53 67 72 70 47 32 35 39 44 49 52 58 66 75 83 78 85 94 96 95 86 77 79 79 81 80 90 97 100 99 99 99
30 27 38 34 58 55 30 23 37 29 26 25 26 34 44 44 45 44 52 67 73 75 59 43 46 49 53 56 68 75 78 98 95 93 97 85 82 68 69 80 79 79 88 95 100 100 99 100 100
30 31 40 40 36 47 53 42 42 31 24 25 28 31 35 47 42 45 49 58 69 76 85 73 56 55 57 62 69 74 87 90 93 82 75 78 72 74 73 76 82 93 82 100 95 99 100 99 99
31 34 36 40 40 44 43 42 31 32 31 29 32 29 36 44 40 19 16 45 68 74 84 94 92 67 60 80 69 74 78 80 76 77 57 62 63 61 62 66 78 89 96 99 99 97 99 98 99

GFSSGP_700_rhum_063.txt.gz
RH
8 10 12 16 24 32 25 21 20 32 37 35 28 30 25 38 41 60 65 72 62 54 54 68 97 98 86 68 57 53 48 39 31 21 13 5 7 10 14 15 15 15 17 20 20 20 22 23 24
8 12 14 26 31 28 25 20 20 20 21 24 29 33 36 36 41 48 53 67 59 42 42 54 53 98 92 80 76 66 62 58 41 25 17 8 7 12 16 17 17 19 21 22 24 26 29 29 29
10 18 21 36 33 30 26 22 20 17 23 37 45 43 45 39 42 41 48 53 76 58 42 37 67 96 92 75 78 69 60 52 46 30 17 9 10 15 18 20 21 24 26 28 32 34 34 34 31
15 29 31 29 26 19 18 15 15 19 21 25 38 46 52 57 59 56 54 54 52 60 50 61 92 78 92 77 73 72 70 58 55 35 17 10 14 18 20 24 26 29 36 39 39 39 38 38 37
28 28 28 28 25 20 18 18 18 19 23 24 28 45 55 57 55 45 50 53 73 68 74 77 85 81 84 81 84 74 82 88 69 31 15 12 18 23 24 28 30 40 42 42 42 41 40 41 40
28 33 35 30 23 18 18 24 23 24 33 32 39 46 50 46 46 42 69 68 68 86 88 98 98 99 98 98 100 94 96 91 48 22 14 16 22 26 29 33 38 44 45 44 41 39 40 44 41
28 27 26 23 20 17 19 21 23 30 40 44 44 47 52 47 45 65 64 61 67 76 88 90 100 100 99 100 99 99 99 79 18 15 16 22 29 30 34 38 44 46 48 46 43 43 46 46 43
32 31 23 21 19 20 22 22 27 27 35 48 45 60 51 64 60 62 68 70 71 61 72 77 73 66 85 100 100 100 97 80 16 21 24 32 34 36 40 43 47 52 51 48 48 46 44 39 33
25 24 24 22 22 21 19 24 23 25 33 49 51 60 69 70 75 70 66 67 69 65 70 72 73 77 81 65 86 93 94 25 36 34 40 42 42 43 45 49 55 49 58 51 50 48 49 46 39
27 24 22 21 20 20 18 21 23 37 47 55 50 60 75 80 68 73 73 68 66 62 59 57 56 64 92 84 74 84 97 65 46 48 55 58 48 52 52 54 60 58 58 57 54 54 52 56 48
26 22 21 20 20 20 23 22 27 42 56 58 50 51 50 78 78 70 62 48 52 42 36 40 52 71 94 81 69 72 73 87 88 89 84 85 57 60 55 54 60 53 68 60 58 57 57 62 56
28 25 23 22 22 25 27 25 27 33 42 52 49 56 69 78 74 62 48 34 23 26 28 31 62 97 97 89 91 96 100 98 84 53 55 57 68 69 56 60 50 59 66 65 61 58 61 57 63
26 26 23 26 24 24 35 33 29 35 41 55 56 55 69 76 54 36 23 20 20 58 90 93 86 89 92 89 98 99 100 98 50 49 59 74 87 77 73 55 52 66 76 71 65 65 50 54 63
27 27 26 25 26 25 35 38 43 44 43 50 66 64 62 52 25 22 20 17 14 53 97 100 99 91 89 100 77 100 99 98 74 60 72 88 87 80 64 56 56 72 80 70 65 57 48 51 56
35 33 31 27 26 28 35 37 41 52 57 60 63 85 76 68 36 25 20 16 18 60 89 100 100 100 83 98 98 99 100 99 97 99 94 95 94 78 64 56 53 63 73 69 68 57 48 49 56
34 30 29 26 26 32 35 29 45 53 47 54 58 80 79 62 60 32 22 16 30 73 100 99 98 97 94 100 100 99 100 97 98 100 94 91 87 68 59 59 58 63 62 72 69 56 51 48 46
24 34 27 27 30 34 33 37 53 53 46 45 52 64 39 43 55 39 25 20 28 44 85 100 100 100 100 83 99 99 100 98 99 99 86 79 69 60 55 60 60 64 67 83 72 70 59 54 52
26 32 27 28 31 34 35 36 51 56 43 43 53 57 38 42 49 43 25 20 20 34 39 56 94 100 87 88 99 96 84 78 90 78 71 66 66 61 57 61 68 68 68 85 84 77 76 79 67
29 30 29 23 30 37 35 37 43 44 38 38 49 64 56 40 53 43 27 21 16 13 32 34 34 50 50 49 57 52 52 59 64 65 60 60 57 54 53 59 63 71 76 86 90 81 82 92 100
34 32 28 21 37 39 37 30 36 44 38 36 50 66 61 26 26 28 31 25 21 18 18 16 35 34 42 54 57 53 46 48 52 57 59 59 54 56 60 90 79 80 82 83 83 85 88 95 100
32 32 27 26 29 30 34 33 44 42 47 56 59 64 60 26 21 14 31 36 34 35 32 28 20 25 40 54 48 48 55 54 48 48 50 47 48 53 66 84 92 92 90 92 97 86 90 95 96
33 31 32 33 30 31 30 36 32 35 35 48 56 60 58 46 27 17 22 36 34 40 41 44 39 25 28 27 30 32 38 38 37 38 40 42 45 52 69 73 83 91 86 89 98 94 91 99 97
32 31 34 34 35 30 26 30 33 34 36 44 48 57 59 56 51 23 23 31 36 34 38 42 43 45 44 44 41 45 42 39 41 44 44 53 62 53 56 67 81 89 93 95 92 96 99 90 100
32 32 34 34 36 42 30 32 33 32 34 36 47 49 48 38 56 40 25 28 30 34 35 35 36 41 43 44 42 45 48 58 62 67 71 74 77 90 79 84 86 90 90 93 95 95 97 98 98
34 33 43 55 58 60 41 46 35 29 31 32 34 40 45 42 50 47 34 25 25 26 30 32 34 36 40 44 44 48 54 58 63 72 73 71 74 77 92 93 95 98 98 100 96 97 98 96 98
32 36 42 57 80 65 46 48 34 31 28 29 32 35 34 46 47 44 40 43 27 27 28 32 32 34 38 40 43 48 57 61 66 73 75 82 70 87 92 92 84 90 82 88 93 87 92 96 99
36 36 34 37 53 61 46 35 37 32 30 30 28 28 35 42 42 44 46 49 51 51 29 28 31 33 38 42 44 48 63 64 67 70 80 85 88 97 97 79 72 65 72 81 78 84 74 100 99
35 35 38 41 70 77 48 45 39 41 31 28 30 32 37 44 45 47 50 50 49 47 54 45 32 33 38 41 46 51 58 67 72 83 78 98 98 81 82 71 57 65 72 80 92 77 99 97 93
35 34 31 33 42 66 64 46 38 41 34 29 26 31 37 40 41 48 48 48 52 52 59 53 68 42 41 44 46 52 56 69 86 96 99 81 75 63 71 60 53 58 62 83 89 85 98 90 95
34 33 30 33 47 46 47 45 36 36 33 26 26 27 28 33 27 30 51 53 60 58 65 61 63 70 64 62 63 74 70 94 89 100 91 95 74 72 62 58 57 55 70 85 99 81 99 75 100